Time,TemperatureF,DewpointF,PressureIn,WindDirection,WindDirectionDegrees,WindSpeedMPH,WindSpeedGustMPH,Humidity,HourlyPrecipIn,Conditions,Clouds,dailyrainin,SoftwareType,DateUTC
2013-07-27 00:00:00,68.3,63.3,29.89,East,79,0.0,0.0,84,0.00,,SCT,1.14,WeatherDisplay:10.37,2013-07-27 04:00:00,
2013-07-27 00:01:00,68.3,63.3,29.89,East,79,0.0,0.0,84,0.00,RA,SCT,0.00,WeatherDisplay:10.37,2013-07-27 04:01:00,
2013-07-27 00:02:00,68.3,63.3,29.89,East,79,0.0,0.0,84,0.00,RA,SCT,0.00,WeatherDisplay:10.37,2013-07-27 04:02:00,
2013-07-27 00:03:00,68.3,63.3,29.89,East,79,0.0,0.0,84,0.00,RA,SCT,0.00,WeatherDisplay:10.37,2013-07-27 04:03:00,
2013-07-27 00:04:00,68.3,63.3,29.89,East,79,0.0,0.0,84,0.00,RA,SCT,0.00,WeatherDisplay:10.37,2013-07-27 04:04:00,
2013-07-27 00:05:00,68.3,63.3,29.89,East,79,0.0,0.0,84,0.00,RA,SCT,0.00,WeatherDisplay:10.37,2013-07-27 04:05:00,
2013-07-27 00:08:00,68.3,63.3,29.89,East,79,0.0,0.0,84,0.00,RA,SCT,0.00,WeatherDisplay:10.37,2013-07-27 04:08:00,
2013-07-27 00:11:00,68.3,63.3,29.89,East,79,0.0,0.0,84,0.00,,SCT,0.00,WeatherDisplay:10.37,2013-07-27 04:11:00,
2013-07-27 00:12:00,68.3,63.3,29.89,East,79,0.0,0.0,84,0.00,,SCT,0.00,WeatherDisplay:10.37,2013-07-27 04:12:00,
2013-07-27 00:14:00,68.3,63.3,29.89,East,79,0.0,0.0,84,0.00,,SCT,0.00,WeatherDisplay:10.37,2013-07-27 04:14:00,
2013-07-27 00:15:00,68.3,63.3,29.89,East,79,0.0,0.0,84,0.00,,SCT,0.00,WeatherDisplay:10.37,2013-07-27 04:15:00,
2013-07-27 00:17:00,68.3,63.3,29.89,East,79,0.0,0.0,84,0.00,,SCT,0.00,WeatherDisplay:10.37,2013-07-27 04:17:00,
2013-07-27 00:20:00,68.3,63.3,29.89,East,79,0.0,0.0,84,0.00,,SCT,0.00,WeatherDisplay:10.37,2013-07-27 04:20:00,
2013-07-27 00:21:00,68.3,63.3,29.89,East,79,0.0,0.0,84,0.00,,SCT,0.00,WeatherDisplay:10.37,2013-07-27 04:21:00,
2013-07-27 00:22:00,68.4,63.4,29.89,East,79,0.0,0.0,84,0.00,,SCT,0.00,WeatherDisplay:10.37,2013-07-27 04:22:00,
2013-07-27 00:25:00,68.4,63.7,29.89,East,79,4.6,4.6,85,0.00,,SCT,0.00,WeatherDisplay:10.37,2013-07-27 04:25:00,
2013-07-27 00:26:00,68.4,63.7,29.89,East,79,3.5,0.0,85,0.00,,SCT,0.00,WeatherDisplay:10.37,2013-07-27 04:26:00,
2013-07-27 00:28:00,68.4,63.7,29.89,East,79,3.0,3.0,85,0.00,,SCT,0.00,WeatherDisplay:10.37,2013-07-27 04:28:00,
2013-07-27 00:32:00,68.4,63.7,29.89,East,79,2.3,0.0,85,0.00,,SCT,0.00,WeatherDisplay:10.37,2013-07-27 04:32:00,
2013-07-27 00:34:00,68.4,63.7,29.89,East,79,0.0,0.0,85,0.00,,SCT,0.00,WeatherDisplay:10.37,2013-07-27 04:34:00,
2013-07-27 00:35:00,68.4,63.7,29.89,East,79,0.0,0.0,85,0.00,,SCT,0.00,WeatherDisplay:10.37,2013-07-27 04:35:00,
2013-07-27 00:36:00,68.4,63.7,29.89,East,79,0.0,0.0,85,0.00,,SCT,0.00,WeatherDisplay:10.37,2013-07-27 04:36:00,
2013-07-27 00:37:00,68.4,63.7,29.89,East,79,0.0,0.0,85,0.00,,SCT,0.00,WeatherDisplay:10.37,2013-07-27 04:37:00,
2013-07-27 00:40:00,68.4,63.7,29.89,East,79,0.0,0.0,85,0.00,,SCT,0.00,WeatherDisplay:10.37,2013-07-27 04:40:00,
2013-07-27 00:42:00,68.4,63.7,29.89,East,79,0.0,0.0,85,0.00,,SCT,0.00,WeatherDisplay:10.37,2013-07-27 04:42:00,
2013-07-27 00:44:00,68.3,63.6,29.89,East,79,0.0,0.0,85,0.00,,SCT,0.00,WeatherDisplay:10.37,2013-07-27 04:44:00,
2013-07-27 00:45:00,68.3,63.6,29.89,East,79,0.0,0.0,85,0.00,,SCT,0.00,WeatherDisplay:10.37,2013-07-27 04:45:00,
2013-07-27 00:46:00,68.3,63.6,29.89,East,79,0.0,0.0,85,0.00,,SCT,0.00,WeatherDisplay:10.37,2013-07-27 04:46:00,
2013-07-27 00:48:00,68.3,63.6,29.89,East,79,0.0,0.0,85,0.00,,SCT,0.00,WeatherDisplay:10.37,2013-07-27 04:48:00,
2013-07-27 00:50:00,68.3,63.6,29.89,East,79,0.0,0.0,85,0.00,,SCT,0.00,WeatherDisplay:10.37,2013-07-27 04:50:00,
2013-07-27 00:51:00,68.3,63.6,29.89,East,79,0.0,0.0,85,0.00,,SCT,0.00,WeatherDisplay:10.37,2013-07-27 04:51:00,
2013-07-27 00:55:00,68.3,63.6,29.89,East,79,0.0,0.0,85,0.00,,SCT,0.00,WeatherDisplay:10.37,2013-07-27 04:55:00,
2013-07-27 00:56:00,68.3,63.6,29.89,East,79,0.0,0.0,85,0.00,,SCT,0.00,WeatherDisplay:10.37,2013-07-27 04:56:00,
2013-07-27 00:58:00,68.3,63.6,29.89,East,79,0.0,0.0,85,0.00,,SCT,0.00,WeatherDisplay:10.37,2013-07-27 04:58:00,
2013-07-27 01:00:00,68.3,63.6,29.89,East,79,0.0,0.0,85,0.00,,SCT,0.00,WeatherDisplay:10.37,2013-07-27 05:00:00,
2013-07-27 01:01:00,68.3,63.6,29.89,East,79,0.0,0.0,85,0.00,,SCT,0.00,WeatherDisplay:10.37,2013-07-27 05:01:00,
2013-07-27 01:03:00,68.3,63.6,29.89,East,79,0.0,0.0,85,0.00,,SCT,0.00,WeatherDisplay:10.37,2013-07-27 05:03:00,
2013-07-27 01:04:00,68.3,63.6,29.89,East,79,0.0,0.0,85,0.00,,SCT,0.00,WeatherDisplay:10.37,2013-07-27 05:04:00,
2013-07-27 01:05:00,68.3,63.6,29.89,East,79,0.0,0.0,85,0.00,,SCT,0.00,WeatherDisplay:10.37,2013-07-27 05:05:00,
2013-07-27 01:07:00,68.3,63.6,29.89,East,79,0.0,0.0,85,0.00,,SCT,0.00,WeatherDisplay:10.37,2013-07-27 05:07:00,
2013-07-27 01:09:00,68.1,63.4,29.89,East,79,0.0,0.0,85,0.00,,SCT,0.00,WeatherDisplay:10.37,2013-07-27 05:09:00,
2013-07-27 01:10:00,68.1,63.4,29.88,East,79,0.0,0.0,85,0.00,,SCT,0.00,WeatherDisplay:10.37,2013-07-27 05:10:00,
2013-07-27 01:12:00,68.1,63.4,29.88,East,79,0.0,0.0,85,0.00,,SCT,0.00,WeatherDisplay:10.37,2013-07-27 05:12:00,
2013-07-27 01:13:00,68.1,63.4,29.88,East,79,0.0,0.0,85,0.00,,SCT,0.00,WeatherDisplay:10.37,2013-07-27 05:13:00,
2013-07-27 01:17:00,68.1,63.4,29.88,East,79,0.0,0.0,85,0.00,,SCT,0.00,WeatherDisplay:10.37,2013-07-27 05:17:00,
2013-07-27 01:18:00,68.1,63.8,29.88,East,79,0.0,0.0,86,0.00,,SCT,0.00,WeatherDisplay:10.37,2013-07-27 05:18:00,
2013-07-27 01:19:00,68.3,63.9,29.88,East,79,0.0,0.0,86,0.00,,SCT,0.00,WeatherDisplay:10.37,2013-07-27 05:19:00,
2013-07-27 01:21:00,68.3,63.9,29.88,East,79,0.0,0.0,86,0.00,,SCT,0.00,WeatherDisplay:10.37,2013-07-27 05:21:00,
2013-07-27 01:22:00,68.3,63.9,29.88,East,79,0.0,0.0,86,0.00,,SCT,0.00,WeatherDisplay:10.37,2013-07-27 05:22:00,
2013-07-27 01:24:00,68.3,63.9,29.87,East,79,0.0,0.0,86,0.00,,SCT,0.00,WeatherDisplay:10.37,2013-07-27 05:24:00,
2013-07-27 01:27:00,68.3,63.9,29.87,East,79,0.0,0.0,86,0.00,,SCT,0.00,WeatherDisplay:10.37,2013-07-27 05:27:00,
2013-07-27 01:30:00,68.3,63.9,29.87,East,79,0.0,0.0,86,0.00,,SCT,0.00,WeatherDisplay:10.37,2013-07-27 05:30:00,
2013-07-27 01:31:00,68.3,63.9,29.87,East,79,0.0,0.0,86,0.00,,SCT,0.00,WeatherDisplay:10.37,2013-07-27 05:31:00,
2013-07-27 01:32:00,68.3,63.9,29.87,East,79,0.0,0.0,86,0.00,,SCT,0.00,WeatherDisplay:10.37,2013-07-27 05:32:00,
2013-07-27 01:34:00,68.3,63.9,29.87,East,79,0.0,0.0,86,0.00,,SCT,0.00,WeatherDisplay:10.37,2013-07-27 05:34:00,
2013-07-27 01:35:00,68.3,63.9,29.87,East,79,0.0,0.0,86,0.00,,SCT,0.00,WeatherDisplay:10.37,2013-07-27 05:35:00,
2013-07-27 01:36:00,68.3,63.9,29.87,East,79,0.0,0.0,86,0.00,,SCT,0.00,WeatherDisplay:10.37,2013-07-27 05:36:00,
2013-07-27 01:38:00,68.3,63.9,29.87,East,79,0.0,0.0,86,0.00,,SCT,0.00,WeatherDisplay:10.37,2013-07-27 05:38:00,
2013-07-27 01:39:00,68.4,64.0,29.87,East,79,0.0,0.0,86,0.00,,SCT,0.00,WeatherDisplay:10.37,2013-07-27 05:39:00,
2013-07-27 01:40:00,68.4,64.0,29.87,East,79,0.0,0.0,86,0.00,,SCT,0.00,WeatherDisplay:10.37,2013-07-27 05:40:00,
2013-07-27 01:43:00,68.4,64.0,29.87,East,79,0.0,0.0,86,0.00,,SCT,0.00,WeatherDisplay:10.37,2013-07-27 05:43:00,
2013-07-27 01:44:00,68.4,64.0,29.86,East,79,0.0,0.0,86,0.00,,SCT,0.00,WeatherDisplay:10.37,2013-07-27 05:44:00,
2013-07-27 01:45:00,68.4,64.0,29.86,East,79,0.0,0.0,86,0.00,,SCT,0.00,WeatherDisplay:10.37,2013-07-27 05:45:00,
2013-07-27 01:47:00,68.4,64.0,29.86,East,79,0.0,0.0,86,0.00,,SCT,0.00,WeatherDisplay:10.37,2013-07-27 05:47:00,
2013-07-27 01:48:00,68.4,64.0,29.86,East,79,0.0,0.0,86,0.00,,SCT,0.00,WeatherDisplay:10.37,2013-07-27 05:48:00,
2013-07-27 01:49:00,68.4,64.0,29.86,East,79,0.0,0.0,86,0.00,,SCT,0.00,WeatherDisplay:10.37,2013-07-27 05:49:00,
2013-07-27 01:54:00,68.4,64.0,29.86,East,79,0.0,0.0,86,0.00,,SCT,0.00,WeatherDisplay:10.37,2013-07-27 05:54:00,
2013-07-27 01:55:00,68.4,64.0,29.86,East,79,0.0,0.0,86,0.00,,SCT,0.00,WeatherDisplay:10.37,2013-07-27 05:55:00,
2013-07-27 01:57:00,68.4,64.0,29.86,East,79,0.0,0.0,86,0.00,,SCT,0.00,WeatherDisplay:10.37,2013-07-27 05:57:00,
2013-07-27 01:59:00,68.4,64.0,29.86,East,79,0.0,0.0,86,0.00,,SCT,0.00,WeatherDisplay:10.37,2013-07-27 05:59:00,
2013-07-27 02:00:00,68.4,64.0,29.86,East,79,0.0,0.0,86,0.00,,SCT,0.00,WeatherDisplay:10.37,2013-07-27 06:00:00,
2013-07-27 02:01:00,68.4,64.0,29.86,East,79,0.0,0.0,86,0.00,,SCT,0.00,WeatherDisplay:10.37,2013-07-27 06:01:00,
2013-07-27 02:02:00,68.4,64.4,29.86,East,79,0.0,0.0,87,0.00,,SCT,0.00,WeatherDisplay:10.37,2013-07-27 06:02:00,
2013-07-27 02:04:00,68.4,64.4,29.86,East,79,0.0,0.0,87,0.00,,SCT,0.00,WeatherDisplay:10.37,2013-07-27 06:04:00,
2013-07-27 02:05:00,68.4,64.4,29.86,East,79,0.0,0.0,87,0.00,,SCT,0.00,WeatherDisplay:10.37,2013-07-27 06:05:00,
2013-07-27 02:08:00,68.4,64.4,29.86,East,79,0.0,0.0,87,0.00,,SCT,0.00,WeatherDisplay:10.37,2013-07-27 06:08:00,
2013-07-27 02:10:00,68.4,64.4,29.86,East,79,0.0,0.0,87,0.00,,SCT,0.00,WeatherDisplay:10.37,2013-07-27 06:10:00,
2013-07-27 02:12:00,68.4,64.4,29.86,East,79,0.0,0.0,87,0.00,,SCT,0.00,WeatherDisplay:10.37,2013-07-27 06:12:00,
2013-07-27 02:13:00,68.4,64.4,29.86,East,79,0.0,0.0,87,0.00,,SCT,0.00,WeatherDisplay:10.37,2013-07-27 06:13:00,
2013-07-27 02:17:00,68.4,64.4,29.86,East,79,0.0,0.0,87,0.00,,SCT,0.00,WeatherDisplay:10.37,2013-07-27 06:17:00,
2013-07-27 02:19:00,68.4,64.4,29.86,East,79,0.0,0.0,87,0.00,,SCT,0.00,WeatherDisplay:10.37,2013-07-27 06:19:00,
2013-07-27 02:20:00,68.4,64.4,29.86,East,79,0.0,0.0,87,0.00,,SCT,0.00,WeatherDisplay:10.37,2013-07-27 06:20:00,
2013-07-27 02:23:00,68.4,64.4,29.85,East,79,1.1,1.1,87,0.00,,SCT,0.00,WeatherDisplay:10.37,2013-07-27 06:23:00,
2013-07-27 02:25:00,68.4,64.4,29.85,East,79,3.5,3.5,87,0.00,,SCT,0.00,WeatherDisplay:10.37,2013-07-27 06:25:00,
2013-07-27 02:27:00,68.4,64.4,29.85,East,79,1.1,0.0,87,0.00,,SCT,0.00,WeatherDisplay:10.37,2013-07-27 06:27:00,
2013-07-27 02:29:00,68.4,64.4,29.85,East,79,0.0,0.0,87,0.00,,SCT,0.00,WeatherDisplay:10.37,2013-07-27 06:29:00,
2013-07-27 02:30:00,68.4,64.4,29.85,East,79,0.0,0.0,87,0.00,,SCT,0.00,WeatherDisplay:10.37,2013-07-27 06:30:00,
2013-07-27 02:31:00,68.4,64.4,29.85,East,79,0.0,0.0,87,0.00,,SCT,0.00,WeatherDisplay:10.37,2013-07-27 06:31:00,
2013-07-27 02:32:00,68.4,64.4,29.85,East,79,0.0,0.0,87,0.00,,SCT,0.00,WeatherDisplay:10.37,2013-07-27 06:32:00,
2013-07-27 02:33:00,68.4,64.4,29.85,East,79,0.0,0.0,87,0.00,,SCT,0.00,WeatherDisplay:10.37,2013-07-27 06:33:00,
2013-07-27 02:36:00,68.6,64.6,29.85,East,79,0.0,0.0,87,0.00,,SCT,0.00,WeatherDisplay:10.37,2013-07-27 06:36:00,
2013-07-27 02:37:00,68.6,64.6,29.84,East,79,0.0,0.0,87,0.00,,SCT,0.00,WeatherDisplay:10.37,2013-07-27 06:37:00,
2013-07-27 02:38:00,68.6,64.6,29.85,East,79,0.0,0.0,87,0.00,,SCT,0.00,WeatherDisplay:10.37,2013-07-27 06:38:00,
2013-07-27 02:40:00,68.6,64.6,29.84,East,79,0.0,0.0,87,0.00,,SCT,0.00,WeatherDisplay:10.37,2013-07-27 06:40:00,
2013-07-27 02:42:00,68.6,64.6,29.84,East,79,0.0,0.0,87,0.00,,SCT,0.00,WeatherDisplay:10.37,2013-07-27 06:42:00,
2013-07-27 02:43:00,68.6,64.6,29.84,East,79,0.0,0.0,87,0.00,,SCT,0.00,WeatherDisplay:10.37,2013-07-27 06:43:00,
2013-07-27 02:44:00,68.6,64.6,29.84,East,79,0.0,0.0,87,0.00,,SCT,0.00,WeatherDisplay:10.37,2013-07-27 06:44:00,
2013-07-27 02:45:00,68.6,64.6,29.84,East,79,0.0,0.0,87,0.00,,SCT,0.00,WeatherDisplay:10.37,2013-07-27 06:45:00,
2013-07-27 02:47:00,68.6,64.6,29.84,East,79,0.0,0.0,87,0.00,,SCT,0.00,WeatherDisplay:10.37,2013-07-27 06:47:00,
2013-07-27 02:50:00,68.6,64.6,29.84,East,79,0.0,0.0,87,0.00,,SCT,0.00,WeatherDisplay:10.37,2013-07-27 06:50:00,
2013-07-27 02:53:00,68.6,64.6,29.84,East,79,0.0,0.0,87,0.00,,SCT,0.00,WeatherDisplay:10.37,2013-07-27 06:53:00,
2013-07-27 02:55:00,68.6,64.6,29.84,East,79,0.0,0.0,87,0.00,,SCT,0.00,WeatherDisplay:10.37,2013-07-27 06:55:00,
2013-07-27 02:56:00,68.6,64.6,29.84,East,79,0.0,0.0,87,0.00,,SCT,0.00,WeatherDisplay:10.37,2013-07-27 06:56:00,
2013-07-27 02:57:00,68.6,64.6,29.84,East,79,0.0,0.0,87,0.00,,SCT,0.00,WeatherDisplay:10.37,2013-07-27 06:57:00,
2013-07-27 03:00:00,68.6,64.6,29.84,East,79,0.0,0.0,87,0.00,,SCT,0.00,WeatherDisplay:10.37,2013-07-27 07:00:00,
2013-07-27 03:01:00,68.6,64.6,29.84,East,79,0.0,0.0,87,0.00,,SCT,0.00,WeatherDisplay:10.37,2013-07-27 07:01:00,
2013-07-27 03:02:00,68.6,64.6,29.84,East,79,0.0,0.0,87,0.00,,SCT,0.00,WeatherDisplay:10.37,2013-07-27 07:02:00,
2013-07-27 03:05:00,68.6,64.6,29.84,East,79,0.0,0.0,87,0.00,,SCT,0.00,WeatherDisplay:10.37,2013-07-27 07:05:00,
2013-07-27 03:07:00,68.6,64.6,29.83,East,79,0.0,0.0,87,0.00,,SCT,0.00,WeatherDisplay:10.37,2013-07-27 07:07:00,
2013-07-27 03:08:00,68.6,64.6,29.83,East,79,0.0,0.0,87,0.00,,SCT,0.00,WeatherDisplay:10.37,2013-07-27 07:08:00,
2013-07-27 03:09:00,68.4,64.4,29.83,East,79,0.0,0.0,87,0.00,,SCT,0.00,WeatherDisplay:10.37,2013-07-27 07:09:00,
2013-07-27 03:13:00,68.4,64.4,29.83,East,79,0.0,0.0,87,0.00,,SCT,0.00,WeatherDisplay:10.37,2013-07-27 07:13:00,
2013-07-27 03:15:00,68.4,64.4,29.83,East,79,0.0,0.0,87,0.00,,SCT,0.00,WeatherDisplay:10.37,2013-07-27 07:15:00,
2013-07-27 03:16:00,68.4,64.4,29.83,East,79,0.0,0.0,87,0.00,,SCT,0.00,WeatherDisplay:10.37,2013-07-27 07:16:00,
2013-07-27 03:17:00,68.4,64.4,29.83,East,79,0.0,0.0,87,0.00,,SCT,0.00,WeatherDisplay:10.37,2013-07-27 07:17:00,
2013-07-27 03:22:00,68.4,64.4,29.83,East,79,0.0,0.0,87,0.00,,SCT,0.00,WeatherDisplay:10.37,2013-07-27 07:22:00,
2013-07-27 03:24:00,68.4,64.7,29.83,East,79,0.0,0.0,88,0.00,,SCT,0.00,WeatherDisplay:10.37,2013-07-27 07:24:00,
2013-07-27 03:25:00,68.4,64.7,29.82,East,79,0.0,0.0,88,0.00,,SCT,0.00,WeatherDisplay:10.37,2013-07-27 07:25:00,
2013-07-27 03:29:00,68.4,64.7,29.82,East,79,0.0,0.0,88,0.00,,SCT,0.00,WeatherDisplay:10.37,2013-07-27 07:29:00,
2013-07-27 03:31:00,68.4,64.7,29.82,East,79,0.0,0.0,88,0.00,,SCT,0.00,WeatherDisplay:10.37,2013-07-27 07:31:00,
2013-07-27 03:33:00,68.4,64.7,29.82,East,79,0.0,0.0,88,0.00,,SCT,0.00,WeatherDisplay:10.37,2013-07-27 07:33:00,
2013-07-27 03:34:00,68.4,64.7,29.82,East,79,0.0,0.0,88,0.00,,SCT,0.00,WeatherDisplay:10.37,2013-07-27 07:34:00,
2013-07-27 03:35:00,68.4,64.7,29.82,East,79,0.0,0.0,88,0.00,,SCT,0.00,WeatherDisplay:10.37,2013-07-27 07:35:00,
2013-07-27 03:38:00,68.4,64.7,29.82,East,79,0.0,0.0,88,0.00,,SCT,0.00,WeatherDisplay:10.37,2013-07-27 07:38:00,
2013-07-27 03:41:00,68.4,64.7,29.82,East,79,0.0,0.0,88,0.00,,SCT,0.00,WeatherDisplay:10.37,2013-07-27 07:41:00,
2013-07-27 03:44:00,68.4,64.7,29.82,East,79,0.0,0.0,88,0.00,,SCT,0.00,WeatherDisplay:10.37,2013-07-27 07:44:00,
2013-07-27 03:45:00,68.4,64.7,29.82,East,79,0.0,0.0,88,0.00,,SCT,0.00,WeatherDisplay:10.37,2013-07-27 07:45:00,
2013-07-27 03:47:00,68.4,64.7,29.82,East,79,0.0,0.0,88,0.00,,SCT,0.00,WeatherDisplay:10.37,2013-07-27 07:47:00,
2013-07-27 03:49:00,68.4,64.7,29.82,East,79,0.0,0.0,88,0.00,,SCT,0.00,WeatherDisplay:10.37,2013-07-27 07:49:00,
2013-07-27 03:51:00,68.4,64.7,29.82,East,79,0.0,0.0,88,0.00,,SCT,0.00,WeatherDisplay:10.37,2013-07-27 07:51:00,
2013-07-27 03:52:00,68.4,64.7,29.82,East,79,0.0,0.0,88,0.00,,SCT,0.00,WeatherDisplay:10.37,2013-07-27 07:52:00,
2013-07-27 03:54:00,68.4,64.7,29.82,East,79,0.0,0.0,88,0.00,,SCT,0.00,WeatherDisplay:10.37,2013-07-27 07:54:00,
2013-07-27 03:56:00,68.4,64.7,29.82,East,79,0.0,0.0,88,0.00,,SCT,0.00,WeatherDisplay:10.37,2013-07-27 07:56:00,
2013-07-27 03:58:00,68.4,64.7,29.82,East,79,0.0,0.0,88,0.00,,SCT,0.00,WeatherDisplay:10.37,2013-07-27 07:58:00,
2013-07-27 04:01:00,68.4,64.7,29.82,East,79,0.0,0.0,88,0.00,,SCT,0.00,WeatherDisplay:10.37,2013-07-27 08:01:00,
2013-07-27 04:02:00,68.4,64.7,29.82,East,79,0.0,0.0,88,0.00,,SCT,0.00,WeatherDisplay:10.37,2013-07-27 08:02:00,
2013-07-27 04:06:00,68.4,64.7,29.82,East,79,0.0,0.0,88,0.00,,SCT,0.00,WeatherDisplay:10.37,2013-07-27 08:06:00,
2013-07-27 04:08:00,68.4,64.7,29.82,East,79,0.0,0.0,88,0.00,,SCT,0.00,WeatherDisplay:10.37,2013-07-27 08:08:00,
2013-07-27 04:10:00,68.4,64.7,29.82,East,79,0.0,0.0,88,0.00,,SCT,0.00,WeatherDisplay:10.37,2013-07-27 08:10:00,
2013-07-27 04:11:00,68.4,64.7,29.82,East,79,0.0,0.0,88,0.00,,SCT,0.00,WeatherDisplay:10.37,2013-07-27 08:11:00,
2013-07-27 04:12:00,68.4,64.7,29.82,East,79,0.0,0.0,88,0.00,,SCT,0.00,WeatherDisplay:10.37,2013-07-27 08:12:00,
2013-07-27 04:13:00,68.4,64.7,29.82,East,79,0.0,0.0,88,0.00,,SCT,0.00,WeatherDisplay:10.37,2013-07-27 08:13:00,
2013-07-27 04:17:00,68.4,64.7,29.82,East,79,0.0,0.0,88,0.00,,SCT,0.00,WeatherDisplay:10.37,2013-07-27 08:17:00,
2013-07-27 04:18:00,68.4,64.7,29.82,East,79,0.0,0.0,88,0.00,,SCT,0.00,WeatherDisplay:10.37,2013-07-27 08:18:00,
2013-07-27 04:20:00,68.3,64.6,29.82,East,79,0.0,0.0,88,0.00,,SCT,0.00,WeatherDisplay:10.37,2013-07-27 08:20:00,
2013-07-27 04:21:00,68.3,64.6,29.82,East,79,0.0,0.0,88,0.00,,SCT,0.00,WeatherDisplay:10.37,2013-07-27 08:21:00,
2013-07-27 04:22:00,68.3,64.6,29.82,East,79,0.0,0.0,88,0.00,,SCT,0.00,WeatherDisplay:10.37,2013-07-27 08:22:00,
2013-07-27 04:24:00,68.3,64.6,29.82,East,79,0.0,0.0,88,0.00,,SCT,0.00,WeatherDisplay:10.37,2013-07-27 08:24:00,
2013-07-27 04:25:00,68.3,64.6,29.82,East,79,0.0,0.0,88,0.00,,SCT,0.00,WeatherDisplay:10.37,2013-07-27 08:25:00,
2013-07-27 04:27:00,68.3,64.6,29.82,East,79,0.0,0.0,88,0.00,,SCT,0.00,WeatherDisplay:10.37,2013-07-27 08:27:00,
2013-07-27 04:28:00,68.3,64.6,29.83,East,79,0.0,0.0,88,0.00,,SCT,0.00,WeatherDisplay:10.37,2013-07-27 08:28:00,
2013-07-27 04:30:00,68.3,64.6,29.83,East,79,0.0,0.0,88,0.00,,SCT,0.00,WeatherDisplay:10.37,2013-07-27 08:30:00,
2013-07-27 04:33:00,68.3,64.6,29.83,East,79,0.0,0.0,88,0.00,,SCT,0.00,WeatherDisplay:10.37,2013-07-27 08:33:00,
2013-07-27 04:34:00,68.3,64.6,29.82,East,79,0.0,0.0,88,0.00,,SCT,0.00,WeatherDisplay:10.37,2013-07-27 08:34:00,
2013-07-27 04:35:00,68.3,64.6,29.82,East,79,0.0,0.0,88,0.00,,SCT,0.00,WeatherDisplay:10.37,2013-07-27 08:35:00,
2013-07-27 04:36:00,68.3,64.6,29.82,East,79,0.0,0.0,88,0.00,,SCT,0.00,WeatherDisplay:10.37,2013-07-27 08:36:00,
2013-07-27 04:40:00,68.3,64.6,29.82,East,79,0.0,0.0,88,0.00,,SCT,0.00,WeatherDisplay:10.37,2013-07-27 08:40:00,
2013-07-27 04:42:00,68.3,64.6,29.82,East,79,0.0,0.0,88,0.00,,SCT,0.00,WeatherDisplay:10.37,2013-07-27 08:42:00,
2013-07-27 04:44:00,68.3,64.6,29.82,East,79,0.0,0.0,88,0.00,,SCT,0.00,WeatherDisplay:10.37,2013-07-27 08:44:00,
2013-07-27 04:48:00,68.3,64.6,29.82,East,79,0.0,0.0,88,0.00,,SCT,0.00,WeatherDisplay:10.37,2013-07-27 08:48:00,
2013-07-27 04:49:00,68.3,64.6,29.82,East,79,0.0,0.0,88,0.00,,SCT,0.00,WeatherDisplay:10.37,2013-07-27 08:49:00,
2013-07-27 04:51:00,68.3,64.6,29.82,East,79,0.0,0.0,88,0.00,,SCT,0.00,WeatherDisplay:10.37,2013-07-27 08:51:00,
2013-07-27 04:52:00,68.3,64.6,29.82,East,79,0.0,0.0,88,0.00,,SCT,0.00,WeatherDisplay:10.37,2013-07-27 08:52:00,
2013-07-27 04:54:00,68.1,64.4,29.82,East,79,0.0,0.0,88,0.00,,SCT,0.00,WeatherDisplay:10.37,2013-07-27 08:54:00,
2013-07-27 04:58:00,68.1,64.4,29.82,East,79,0.0,0.0,88,0.00,,SCT,0.00,WeatherDisplay:10.37,2013-07-27 08:58:00,
2013-07-27 04:59:00,68.1,64.4,29.82,East,79,0.0,0.0,88,0.00,,SCT,0.00,WeatherDisplay:10.37,2013-07-27 08:59:00,
2013-07-27 05:00:00,68.1,64.4,29.82,East,79,0.0,0.0,88,0.00,,SCT,0.00,WeatherDisplay:10.37,2013-07-27 09:00:00,
2013-07-27 05:04:00,68.1,64.4,29.82,East,79,0.0,0.0,88,0.00,,SCT,0.00,WeatherDisplay:10.37,2013-07-27 09:04:00,
2013-07-27 05:05:00,68.1,64.4,29.82,East,79,0.0,0.0,88,0.00,,SCT,0.00,WeatherDisplay:10.37,2013-07-27 09:05:00,
2013-07-27 05:06:00,68.1,64.4,29.82,East,79,0.0,0.0,88,0.00,,SCT,0.00,WeatherDisplay:10.37,2013-07-27 09:06:00,
2013-07-27 05:07:00,68.1,64.4,29.82,East,79,0.0,0.0,88,0.00,,SCT,0.00,WeatherDisplay:10.37,2013-07-27 09:07:00,
2013-07-27 05:11:00,68.1,64.4,29.82,East,79,0.0,0.0,88,0.00,,SCT,0.00,WeatherDisplay:10.37,2013-07-27 09:11:00,
2013-07-27 05:14:00,68.3,64.6,29.82,East,79,0.0,0.0,88,0.00,,SCT,0.00,WeatherDisplay:10.37,2013-07-27 09:14:00,
2013-07-27 05:17:00,68.3,64.6,29.82,East,79,0.0,0.0,88,0.00,,SCT,0.00,WeatherDisplay:10.37,2013-07-27 09:17:00,
2013-07-27 05:18:00,68.3,64.6,29.82,East,79,0.0,0.0,88,0.00,,SCT,0.00,WeatherDisplay:10.37,2013-07-27 09:18:00,
2013-07-27 05:19:00,68.3,64.6,29.82,East,79,0.0,0.0,88,0.00,,SCT,0.00,WeatherDisplay:10.37,2013-07-27 09:19:00,
2013-07-27 05:21:00,68.3,64.6,29.82,East,79,0.0,0.0,88,0.00,,SCT,0.00,WeatherDisplay:10.37,2013-07-27 09:21:00,
2013-07-27 05:24:00,68.3,64.6,29.82,East,79,0.0,0.0,88,0.00,,SCT,0.00,WeatherDisplay:10.37,2013-07-27 09:24:00,
2013-07-27 05:26:00,68.3,64.6,29.82,East,79,0.0,0.0,88,0.00,,SCT,0.00,WeatherDisplay:10.37,2013-07-27 09:26:00,
2013-07-27 05:28:00,68.3,64.6,29.82,East,79,0.0,0.0,88,0.00,,SCT,0.00,WeatherDisplay:10.37,2013-07-27 09:28:00,
2013-07-27 05:29:00,68.3,64.6,29.82,East,79,0.0,0.0,88,0.00,,SCT,0.00,WeatherDisplay:10.37,2013-07-27 09:29:00,
2013-07-27 05:30:00,68.3,64.6,29.82,East,79,0.0,0.0,88,0.00,,SCT,0.00,WeatherDisplay:10.37,2013-07-27 09:30:00,
2013-07-27 05:31:00,68.3,64.6,29.82,East,79,0.0,0.0,88,0.00,,SCT,0.00,WeatherDisplay:10.37,2013-07-27 09:31:00,
2013-07-27 05:33:00,68.3,64.6,29.82,East,79,0.0,0.0,88,0.00,,SCT,0.00,WeatherDisplay:10.37,2013-07-27 09:33:00,
2013-07-27 05:36:00,68.3,64.6,29.82,East,79,0.0,0.0,88,0.00,,SCT,0.00,WeatherDisplay:10.37,2013-07-27 09:36:00,
2013-07-27 05:38:00,68.3,64.6,29.82,East,79,0.0,0.0,88,0.00,,SCT,0.00,WeatherDisplay:10.37,2013-07-27 09:38:00,
2013-07-27 05:40:00,68.3,64.6,29.82,East,79,0.0,0.0,88,0.00,,SCT,0.00,WeatherDisplay:10.37,2013-07-27 09:40:00,
2013-07-27 05:43:00,68.3,64.6,29.82,East,79,0.0,0.0,88,0.00,,SCT,0.00,WeatherDisplay:10.37,2013-07-27 09:43:00,
2013-07-27 05:44:00,68.3,64.6,29.82,East,79,0.0,0.0,88,0.00,,SCT,0.00,WeatherDisplay:10.37,2013-07-27 09:44:00,
2013-07-27 05:45:00,68.3,64.6,29.82,East,79,0.0,0.0,88,0.00,,SCT,0.00,WeatherDisplay:10.37,2013-07-27 09:45:00,
2013-07-27 05:47:00,68.3,64.6,29.82,East,79,0.0,0.0,88,0.00,,SCT,0.00,WeatherDisplay:10.37,2013-07-27 09:47:00,
2013-07-27 05:49:00,68.3,64.6,29.82,East,79,0.0,0.0,88,0.00,,SCT,0.00,WeatherDisplay:10.37,2013-07-27 09:49:00,
2013-07-27 05:50:00,68.3,64.6,29.82,East,79,0.0,0.0,88,0.00,,SCT,0.00,WeatherDisplay:10.37,2013-07-27 09:50:00,
2013-07-27 05:52:00,68.3,64.6,29.82,East,79,0.0,0.0,88,0.00,,SCT,0.00,WeatherDisplay:10.37,2013-07-27 09:52:00,
2013-07-27 05:54:00,68.3,64.6,29.82,East,79,0.0,0.0,88,0.00,,SCT,0.00,WeatherDisplay:10.37,2013-07-27 09:54:00,
2013-07-27 05:55:00,68.3,64.6,29.82,East,79,0.0,0.0,88,0.00,,SCT,0.00,WeatherDisplay:10.37,2013-07-27 09:55:00,
2013-07-27 05:58:00,68.3,64.6,29.82,East,79,0.0,0.0,88,0.00,,SCT,0.00,WeatherDisplay:10.37,2013-07-27 09:58:00,
2013-07-27 06:00:00,68.3,64.6,29.82,East,79,0.0,0.0,88,0.00,,SCT,0.00,WeatherDisplay:10.37,2013-07-27 10:00:00,
2013-07-27 06:01:00,68.3,64.6,29.82,East,79,0.0,0.0,88,0.00,,SCT,0.00,WeatherDisplay:10.37,2013-07-27 10:01:00,
2013-07-27 06:04:00,68.3,64.6,29.82,East,79,0.0,0.0,88,0.00,CLR,SCT,0.00,WeatherDisplay:10.37,2013-07-27 10:04:00,
2013-07-27 06:05:00,68.3,64.6,29.82,East,79,0.0,0.0,88,0.00,CLR,SCT,0.00,WeatherDisplay:10.37,2013-07-27 10:05:00,
2013-07-27 06:06:00,68.3,64.6,29.82,East,79,0.0,0.0,88,0.00,CLR,SCT,0.00,WeatherDisplay:10.37,2013-07-27 10:06:00,
2013-07-27 06:08:00,68.1,64.4,29.82,East,79,0.0,0.0,88,0.00,CLR,SCT,0.00,WeatherDisplay:10.37,2013-07-27 10:08:00,
2013-07-27 06:10:00,68.1,64.4,29.82,East,79,0.0,0.0,88,0.00,CLR,SCT,0.00,WeatherDisplay:10.37,2013-07-27 10:10:00,
2013-07-27 06:11:00,68.1,64.4,29.82,East,79,0.0,0.0,88,0.00,CLR,SCT,0.00,WeatherDisplay:10.37,2013-07-27 10:11:00,
2013-07-27 06:15:00,68.1,64.4,29.82,East,79,0.0,0.0,88,0.00,CLR,SCT,0.00,WeatherDisplay:10.37,2013-07-27 10:15:00,
2013-07-27 06:16:00,68.1,64.4,29.82,East,79,0.0,0.0,88,0.00,CLR,SCT,0.00,WeatherDisplay:10.37,2013-07-27 10:16:00,
2013-07-27 06:17:00,68.1,64.4,29.82,East,79,0.0,0.0,88,0.00,CLR,SCT,0.00,WeatherDisplay:10.37,2013-07-27 10:17:00,
2013-07-27 06:18:00,68.1,64.4,29.82,East,79,0.0,0.0,88,0.00,CLR,SCT,0.00,WeatherDisplay:10.37,2013-07-27 10:18:00,
2013-07-27 06:21:00,68.1,64.4,29.82,East,79,0.0,0.0,88,0.00,CLR,SCT,0.00,WeatherDisplay:10.37,2013-07-27 10:21:00,
2013-07-27 06:24:00,67.9,64.2,29.82,East,79,0.0,0.0,88,0.00,CLR,SCT,0.00,WeatherDisplay:10.37,2013-07-27 10:24:00,
2013-07-27 06:25:00,67.9,64.2,29.83,East,80,0.0,0.0,88,0.00,CLR,SCT,0.00,WeatherDisplay:10.37,2013-07-27 10:25:00,
2013-07-27 06:26:00,67.9,64.2,29.83,East,82,0.0,0.0,88,0.00,CLR,SCT,0.00,WeatherDisplay:10.37,2013-07-27 10:26:00,
2013-07-27 06:29:00,67.9,64.2,29.83,East,82,0.0,0.0,88,0.00,CLR,SCT,0.00,WeatherDisplay:10.37,2013-07-27 10:29:00,
2013-07-27 06:30:00,67.9,64.2,29.83,East,82,0.0,0.0,88,0.00,CLR,SCT,0.00,WeatherDisplay:10.37,2013-07-27 10:30:00,
2013-07-27 06:32:00,67.9,64.2,29.83,East,82,0.0,0.0,88,0.00,CLR,SCT,0.00,WeatherDisplay:10.37,2013-07-27 10:32:00,
2013-07-27 06:34:00,67.8,64.1,29.83,East,82,0.0,0.0,88,0.00,CLR,SCT,0.00,WeatherDisplay:10.37,2013-07-27 10:34:00,
2013-07-27 06:37:00,67.8,64.1,29.83,East,82,0.0,0.0,88,0.00,CLR,SCT,0.00,WeatherDisplay:10.37,2013-07-27 10:37:00,
2013-07-27 06:38:00,67.8,64.1,29.83,NNE,31,0.0,0.0,88,0.00,CLR,SCT,0.00,WeatherDisplay:10.37,2013-07-27 10:38:00,
2013-07-27 06:39:00,67.8,64.1,29.83,NNE,28,0.0,0.0,88,0.00,CLR,SCT,0.00,WeatherDisplay:10.37,2013-07-27 10:39:00,
2013-07-27 06:40:00,67.8,64.1,29.83,NNW,329,0.0,0.0,88,0.00,CLR,SCT,0.00,WeatherDisplay:10.37,2013-07-27 10:40:00,
2013-07-27 06:42:00,67.8,64.1,29.83,NNW,329,0.0,0.0,88,0.00,CLR,SCT,0.00,WeatherDisplay:10.37,2013-07-27 10:42:00,
2013-07-27 06:45:00,67.8,64.1,29.83,NNE,20,0.0,0.0,88,0.00,CLR,SCT,0.00,WeatherDisplay:10.37,2013-07-27 10:45:00,
2013-07-27 06:47:00,67.8,64.1,29.83,NNE,20,0.0,0.0,88,0.00,CLR,SCT,0.00,WeatherDisplay:10.37,2013-07-27 10:47:00,
2013-07-27 06:48:00,67.8,64.4,29.83,NNE,20,0.0,0.0,89,0.00,CLR,SCT,0.00,WeatherDisplay:10.37,2013-07-27 10:48:00,
2013-07-27 06:50:00,67.6,64.2,29.83,NNE,20,0.0,0.0,89,0.00,CLR,SCT,0.00,WeatherDisplay:10.37,2013-07-27 10:50:00,
2013-07-27 06:53:00,67.6,64.2,29.83,NNE,22,0.0,0.0,89,0.00,CLR,SCT,0.00,WeatherDisplay:10.37,2013-07-27 10:53:00,
2013-07-27 06:55:00,67.6,64.2,29.83,NNE,22,0.0,0.0,89,0.00,CLR,SCT,0.00,WeatherDisplay:10.37,2013-07-27 10:55:00,
2013-07-27 06:58:00,67.8,64.4,29.83,NNE,22,0.0,0.0,89,0.00,CLR,SCT,0.00,WeatherDisplay:10.37,2013-07-27 10:58:00,
2013-07-27 07:00:00,67.8,64.4,29.83,NNE,22,0.0,0.0,89,0.00,CLR,SCT,0.00,WeatherDisplay:10.37,2013-07-27 11:00:00,
2013-07-27 07:01:00,67.8,64.4,29.82,NNE,22,0.0,0.0,89,0.00,CLR,SCT,0.00,WeatherDisplay:10.37,2013-07-27 11:01:00,
2013-07-27 07:02:00,67.8,64.4,29.82,NNE,22,0.0,0.0,89,0.00,CLR,SCT,0.00,WeatherDisplay:10.37,2013-07-27 11:02:00,
2013-07-27 07:03:00,67.8,64.4,29.82,NNE,22,0.0,0.0,89,0.00,CLR,SCT,0.00,WeatherDisplay:10.37,2013-07-27 11:03:00,
2013-07-27 07:04:00,67.8,64.4,29.82,NNE,22,0.0,0.0,89,0.00,CLR,SCT,0.00,WeatherDisplay:10.37,2013-07-27 11:04:00,
2013-07-27 07:07:00,67.8,64.4,29.84,NNE,22,0.0,0.0,89,0.00,CLR,SCT,0.00,WeatherDisplay:10.37,2013-07-27 11:07:00,
2013-07-27 07:09:00,67.8,64.4,29.84,NNE,22,0.0,0.0,89,0.00,CLR,SCT,0.00,WeatherDisplay:10.37,2013-07-27 11:09:00,
2013-07-27 07:12:00,67.8,64.4,29.84,NNE,22,0.0,0.0,89,0.00,CLR,SCT,0.00,WeatherDisplay:10.37,2013-07-27 11:12:00,
2013-07-27 07:14:00,67.9,64.5,29.84,NNE,22,0.0,0.0,89,0.00,CLR,SCT,0.00,WeatherDisplay:10.37,2013-07-27 11:14:00,
2013-07-27 07:17:00,67.9,64.5,29.84,NNE,22,0.0,0.0,89,0.00,CLR,SCT,0.00,WeatherDisplay:10.37,2013-07-27 11:17:00,
2013-07-27 07:18:00,67.9,64.5,29.85,NNE,22,0.0,0.0,89,0.00,CLR,SCT,0.00,WeatherDisplay:10.37,2013-07-27 11:18:00,
2013-07-27 07:21:00,67.9,64.5,29.85,NNE,22,0.0,0.0,89,0.00,CLR,SCT,0.00,WeatherDisplay:10.37,2013-07-27 11:21:00,
2013-07-27 07:22:00,67.9,64.5,29.85,NNE,22,0.0,0.0,89,0.00,CLR,SCT,0.00,WeatherDisplay:10.37,2013-07-27 11:22:00,
2013-07-27 07:24:00,67.9,64.5,29.85,NNE,22,0.0,0.0,89,0.00,CLR,SCT,0.00,WeatherDisplay:10.37,2013-07-27 11:24:00,
2013-07-27 07:25:00,67.9,64.5,29.85,NNE,22,0.0,0.0,89,0.00,CLR,SCT,0.00,WeatherDisplay:10.37,2013-07-27 11:25:00,
2013-07-27 07:30:00,67.9,64.5,29.85,NNE,22,0.0,0.0,89,0.00,CLR,SCT,0.00,WeatherDisplay:10.37,2013-07-27 11:30:00,
2013-07-27 07:31:00,67.9,64.5,29.85,NNE,22,0.0,0.0,89,0.00,CLR,SCT,0.00,WeatherDisplay:10.37,2013-07-27 11:31:00,
2013-07-27 07:32:00,67.9,64.5,29.85,NNE,22,0.0,0.0,89,0.00,CLR,SCT,0.00,WeatherDisplay:10.37,2013-07-27 11:32:00,
2013-07-27 07:35:00,68.1,64.7,29.85,NNE,22,0.0,0.0,89,0.00,CLR,SCT,0.00,WeatherDisplay:10.37,2013-07-27 11:35:00,
2013-07-27 07:37:00,68.1,64.7,29.85,NNE,22,0.0,0.0,89,0.00,CLR,SCT,0.00,WeatherDisplay:10.37,2013-07-27 11:37:00,
2013-07-27 07:38:00,68.1,64.7,29.85,NNE,22,0.0,0.0,89,0.00,CLR,SCT,0.00,WeatherDisplay:10.37,2013-07-27 11:38:00,
2013-07-27 07:39:00,68.1,64.7,29.85,NNE,22,0.0,0.0,89,0.00,CLR,SCT,0.00,WeatherDisplay:10.37,2013-07-27 11:39:00,
2013-07-27 07:42:00,68.1,64.7,29.85,NNE,13,0.0,0.0,89,0.00,CLR,SCT,0.00,WeatherDisplay:10.37,2013-07-27 11:42:00,
2013-07-27 07:44:00,68.1,64.7,29.85,NW,325,0.0,0.0,89,0.00,CLR,SCT,0.00,WeatherDisplay:10.37,2013-07-27 11:44:00,
2013-07-27 07:46:00,68.3,64.9,29.85,NW,326,0.0,0.0,89,0.00,CLR,SCT,0.00,WeatherDisplay:10.37,2013-07-27 11:46:00,
2013-07-27 07:47:00,68.3,64.9,29.85,NW,326,0.0,0.0,89,0.00,CLR,SCT,0.00,WeatherDisplay:10.37,2013-07-27 11:47:00,
2013-07-27 07:49:00,68.3,64.9,29.85,NW,324,0.0,0.0,89,0.00,CLR,SCT,0.00,WeatherDisplay:10.37,2013-07-27 11:49:00,
2013-07-27 07:50:00,68.3,64.9,29.85,NW,324,0.0,0.0,89,0.00,CLR,SCT,0.00,WeatherDisplay:10.37,2013-07-27 11:50:00,
2013-07-27 07:52:00,68.3,64.9,29.85,NW,324,0.0,0.0,89,0.00,CLR,SCT,0.00,WeatherDisplay:10.37,2013-07-27 11:52:00,
2013-07-27 07:55:00,68.3,64.9,29.85,NW,324,0.0,0.0,89,0.00,CLR,SCT,0.00,WeatherDisplay:10.37,2013-07-27 11:55:00,
2013-07-27 07:57:00,68.3,64.9,29.85,NW,324,0.0,0.0,89,0.00,CLR,SCT,0.00,WeatherDisplay:10.37,2013-07-27 11:57:00,
2013-07-27 07:58:00,68.3,64.9,29.85,NW,324,0.0,0.0,89,0.00,CLR,SCT,0.00,WeatherDisplay:10.37,2013-07-27 11:58:00,
2013-07-27 08:01:00,68.3,64.9,29.85,NW,324,0.0,0.0,89,0.00,CLR,SCT,0.00,WeatherDisplay:10.37,2013-07-27 12:01:00,
2013-07-27 08:03:00,68.3,64.9,29.85,NW,324,0.0,0.0,89,0.00,CLR,SCT,0.00,WeatherDisplay:10.37,2013-07-27 12:03:00,
2013-07-27 08:04:00,68.3,64.9,29.85,NNW,345,0.0,0.0,89,0.00,CLR,SCT,0.00,WeatherDisplay:10.37,2013-07-27 12:04:00,
2013-07-27 08:05:00,68.3,64.9,29.85,NNW,333,0.0,0.0,89,0.00,CLR,SCT,0.00,WeatherDisplay:10.37,2013-07-27 12:05:00,
2013-07-27 08:07:00,68.3,64.9,29.86,NNW,333,0.0,0.0,89,0.00,CLR,SCT,0.00,WeatherDisplay:10.37,2013-07-27 12:07:00,
2013-07-27 08:09:00,68.3,64.9,29.86,NNW,333,0.0,0.0,89,0.00,CLR,SCT,0.00,WeatherDisplay:10.37,2013-07-27 12:09:00,
2013-07-27 08:10:00,68.3,64.9,29.86,NNW,335,0.0,0.0,89,0.00,CLR,SCT,0.00,WeatherDisplay:10.37,2013-07-27 12:10:00,
2013-07-27 08:11:00,68.3,64.9,29.86,NNW,335,0.0,0.0,89,0.00,CLR,SCT,0.00,WeatherDisplay:10.37,2013-07-27 12:11:00,
2013-07-27 08:12:00,68.3,64.9,29.86,NE,46,0.0,0.0,89,0.00,CLR,SCT,0.00,WeatherDisplay:10.37,2013-07-27 12:12:00,
2013-07-27 08:15:00,68.3,64.9,29.86,NE,46,0.0,0.0,89,0.00,CLR,SCT,0.00,WeatherDisplay:10.37,2013-07-27 12:15:00,
2013-07-27 08:16:00,68.3,64.9,29.87,NE,46,0.0,0.0,89,0.00,CLR,SCT,0.00,WeatherDisplay:10.37,2013-07-27 12:16:00,
2013-07-27 08:18:00,68.4,65.0,29.87,NE,46,0.0,0.0,89,0.01,RA,SCT,0.01,WeatherDisplay:10.37,2013-07-27 12:18:00,
2013-07-27 08:19:00,68.4,65.0,29.87,NE,46,0.0,0.0,89,0.01,RA,SCT,0.01,WeatherDisplay:10.37,2013-07-27 12:19:00,
2013-07-27 08:20:00,68.4,65.0,29.87,NE,46,4.0,4.0,89,0.01,RA,SCT,0.01,WeatherDisplay:10.37,2013-07-27 12:20:00,
2013-07-27 08:21:00,68.4,65.0,29.87,NE,46,3.5,3.5,89,0.01,RA,SCT,0.01,WeatherDisplay:10.37,2013-07-27 12:21:00,
2013-07-27 08:24:00,68.4,65.0,29.87,NE,46,0.0,0.0,89,0.04,RA,SCT,0.04,WeatherDisplay:10.37,2013-07-27 12:24:00,
2013-07-27 08:26:00,68.4,65.0,29.87,NE,46,0.0,0.0,89,0.04,RA,SCT,0.04,WeatherDisplay:10.37,2013-07-27 12:26:00,
2013-07-27 08:27:00,68.4,65.0,29.87,NE,46,0.0,0.0,89,0.04,RA,SCT,0.05,WeatherDisplay:10.37,2013-07-27 12:27:00,
2013-07-27 08:28:00,68.4,65.0,29.87,NE,46,0.0,0.0,89,0.05,RA,SCT,0.05,WeatherDisplay:10.37,2013-07-27 12:28:00,
2013-07-27 08:32:00,68.4,65.0,29.87,NE,46,0.0,0.0,89,0.05,RA,SCT,0.06,WeatherDisplay:10.37,2013-07-27 12:32:00,
2013-07-27 08:33:00,68.4,65.0,29.87,NE,46,0.0,0.0,89,0.06,RA,SCT,0.06,WeatherDisplay:10.37,2013-07-27 12:33:00,
2013-07-27 08:35:00,68.4,65.0,29.87,NE,46,0.0,0.0,89,0.06,RA,SCT,0.06,WeatherDisplay:10.37,2013-07-27 12:35:00,
2013-07-27 08:37:00,68.4,65.0,29.87,NE,46,0.0,0.0,89,0.06,RA,SCT,0.06,WeatherDisplay:10.37,2013-07-27 12:37:00,
2013-07-27 08:39:00,68.4,65.0,29.87,NE,46,0.0,0.0,89,0.06,RA,SCT,0.06,WeatherDisplay:10.37,2013-07-27 12:39:00,
2013-07-27 08:40:00,68.4,65.0,29.87,NE,46,0.0,0.0,89,0.06,RA,SCT,0.06,WeatherDisplay:10.37,2013-07-27 12:40:00,
2013-07-27 08:43:00,68.6,65.2,29.86,NE,46,0.0,0.0,89,0.06,CLR,SCT,0.06,WeatherDisplay:10.37,2013-07-27 12:43:00,
2013-07-27 08:45:00,68.6,65.2,29.86,NE,46,0.0,0.0,89,0.06,CLR,SCT,0.06,WeatherDisplay:10.37,2013-07-27 12:45:00,
2013-07-27 08:46:00,68.6,65.2,29.86,NE,46,0.0,0.0,89,0.06,CLR,SCT,0.06,WeatherDisplay:10.37,2013-07-27 12:46:00,
2013-07-27 08:47:00,68.6,65.5,29.86,NE,46,0.0,0.0,90,0.06,CLR,SCT,0.06,WeatherDisplay:10.37,2013-07-27 12:47:00,
2013-07-27 08:48:00,68.6,65.5,29.86,NE,46,0.0,0.0,90,0.06,CLR,SCT,0.06,WeatherDisplay:10.37,2013-07-27 12:48:00,
2013-07-27 08:50:00,68.8,65.7,29.86,NE,46,0.0,0.0,90,0.06,CLR,SCT,0.06,WeatherDisplay:10.37,2013-07-27 12:50:00,
2013-07-27 08:51:00,68.8,65.7,29.86,NE,46,0.0,0.0,90,0.06,CLR,SCT,0.06,WeatherDisplay:10.37,2013-07-27 12:51:00,
2013-07-27 08:52:00,68.8,65.7,29.86,NE,46,0.0,0.0,90,0.06,CLR,SCT,0.06,WeatherDisplay:10.37,2013-07-27 12:52:00,
2013-07-27 08:53:00,68.8,65.7,29.86,NE,46,0.0,0.0,90,0.06,CLR,SCT,0.06,WeatherDisplay:10.37,2013-07-27 12:53:00,
2013-07-27 08:55:00,68.9,65.8,29.86,NE,46,0.0,0.0,90,0.06,CLR,SCT,0.06,WeatherDisplay:10.37,2013-07-27 12:55:00,
2013-07-27 08:57:00,68.9,65.8,29.86,NE,46,0.0,0.0,90,0.06,CLR,SCT,0.06,WeatherDisplay:10.37,2013-07-27 12:57:00,
2013-07-27 08:58:00,68.9,65.8,29.86,NE,46,0.0,0.0,90,0.06,CLR,SCT,0.06,WeatherDisplay:10.37,2013-07-27 12:58:00,
2013-07-27 08:59:00,68.9,65.8,29.86,NE,46,0.0,0.0,90,0.06,CLR,SCT,0.06,WeatherDisplay:10.37,2013-07-27 12:59:00,
2013-07-27 09:03:00,69.1,66.0,29.86,NE,46,0.0,0.0,90,0.06,CLR,SCT,0.06,WeatherDisplay:10.37,2013-07-27 13:03:00,
2013-07-27 09:04:00,69.1,66.0,29.86,NE,46,0.0,0.0,90,0.06,CLR,SCT,0.06,WeatherDisplay:10.37,2013-07-27 13:04:00,
2013-07-27 09:06:00,69.1,66.0,29.86,NE,47,0.0,0.0,90,0.06,CLR,SCT,0.06,WeatherDisplay:10.37,2013-07-27 13:06:00,
2013-07-27 09:07:00,69.1,66.0,29.86,NE,47,0.0,0.0,90,0.06,CLR,SCT,0.06,WeatherDisplay:10.37,2013-07-27 13:07:00,
2013-07-27 09:12:00,69.3,66.2,29.86,NE,47,0.0,0.0,90,0.06,CLR,SCT,0.06,WeatherDisplay:10.37,2013-07-27 13:12:00,
2013-07-27 09:13:00,69.3,66.2,29.86,NE,47,0.0,0.0,90,0.06,CLR,SCT,0.06,WeatherDisplay:10.37,2013-07-27 13:13:00,
2013-07-27 09:14:00,69.3,66.2,29.86,NE,47,0.0,0.0,90,0.06,CLR,SCT,0.06,WeatherDisplay:10.37,2013-07-27 13:14:00,
2013-07-27 09:17:00,69.3,66.2,29.86,NE,44,0.0,0.0,90,0.06,CLR,SCT,0.06,WeatherDisplay:10.37,2013-07-27 13:17:00,
2013-07-27 09:18:00,69.3,66.2,29.86,NE,44,0.0,0.0,90,0.05,CLR,SCT,0.06,WeatherDisplay:10.37,2013-07-27 13:18:00,
2013-07-27 09:19:00,69.3,66.2,29.86,NE,44,0.0,0.0,90,0.05,CLR,SCT,0.06,WeatherDisplay:10.37,2013-07-27 13:19:00,
2013-07-27 09:21:00,69.4,66.3,29.86,NE,44,0.0,0.0,90,0.05,CLR,SCT,0.06,WeatherDisplay:10.37,2013-07-27 13:21:00,
2013-07-27 09:23:00,69.4,66.3,29.86,NE,44,0.0,0.0,90,0.03,CLR,SCT,0.06,WeatherDisplay:10.37,2013-07-27 13:23:00,
2013-07-27 09:24:00,69.4,66.3,29.86,NE,44,0.0,0.0,90,0.02,CLR,SCT,0.06,WeatherDisplay:10.37,2013-07-27 13:24:00,
2013-07-27 09:25:00,69.4,66.3,29.86,NE,44,0.0,0.0,90,0.02,CLR,SCT,0.06,WeatherDisplay:10.37,2013-07-27 13:25:00,
2013-07-27 09:29:00,69.6,66.5,29.86,NE,44,0.0,0.0,90,0.01,CLR,SCT,0.06,WeatherDisplay:10.37,2013-07-27 13:29:00,
2013-07-27 09:31:00,69.6,66.5,29.86,NE,44,0.0,0.0,90,0.01,CLR,SCT,0.06,WeatherDisplay:10.37,2013-07-27 13:31:00,
2013-07-27 09:32:00,69.6,66.5,29.86,NE,44,0.0,0.0,90,0.01,CLR,SCT,0.06,WeatherDisplay:10.37,2013-07-27 13:32:00,
2013-07-27 09:33:00,69.6,66.5,29.86,NE,44,0.0,0.0,90,0.00,CLR,SCT,0.06,WeatherDisplay:10.37,2013-07-27 13:33:00,
2013-07-27 09:35:00,69.8,66.7,29.86,NE,44,0.0,0.0,90,0.00,CLR,SCT,0.06,WeatherDisplay:10.37,2013-07-27 13:35:00,
2013-07-27 09:38:00,69.9,66.8,29.86,NE,45,0.0,0.0,90,0.00,CLR,SCT,0.06,WeatherDisplay:10.37,2013-07-27 13:38:00,
2013-07-27 09:40:00,69.9,66.8,29.86,NE,45,0.0,0.0,90,0.00,CLR,SCT,0.06,WeatherDisplay:10.37,2013-07-27 13:40:00,
2013-07-27 09:41:00,69.9,66.8,29.86,NE,45,0.0,0.0,90,0.00,CLR,SCT,0.06,WeatherDisplay:10.37,2013-07-27 13:41:00,
2013-07-27 09:42:00,69.9,66.8,29.86,NE,45,0.0,0.0,90,0.00,CLR,SCT,0.06,WeatherDisplay:10.37,2013-07-27 13:42:00,
2013-07-27 09:43:00,69.9,66.8,29.86,NE,45,0.0,0.0,90,0.00,CLR,SCT,0.06,WeatherDisplay:10.37,2013-07-27 13:43:00,
2013-07-27 09:44:00,69.9,66.8,29.86,NE,45,0.0,0.0,90,0.00,CLR,SCT,0.06,WeatherDisplay:10.37,2013-07-27 13:44:00,
2013-07-27 09:46:00,70.1,67.0,29.86,NE,45,0.0,0.0,90,0.00,CLR,SCT,0.06,WeatherDisplay:10.37,2013-07-27 13:46:00,
2013-07-27 09:47:00,70.1,67.0,29.86,NE,45,0.0,0.0,90,0.00,CLR,SCT,0.06,WeatherDisplay:10.37,2013-07-27 13:47:00,
2013-07-27 09:48:00,70.3,67.2,29.86,NE,45,0.0,0.0,90,0.00,CLR,SCT,0.06,WeatherDisplay:10.37,2013-07-27 13:48:00,
2013-07-27 09:50:00,70.3,67.2,29.86,NE,45,0.0,0.0,90,0.00,CLR,SCT,0.06,WeatherDisplay:10.37,2013-07-27 13:50:00,
2013-07-27 09:52:00,70.4,67.3,29.86,NE,45,0.0,0.0,90,0.00,CLR,SCT,0.06,WeatherDisplay:10.37,2013-07-27 13:52:00,
2013-07-27 09:53:00,70.4,67.3,29.86,NE,45,0.0,0.0,90,0.00,CLR,SCT,0.06,WeatherDisplay:10.37,2013-07-27 13:53:00,
2013-07-27 09:55:00,70.6,67.5,29.86,NE,45,0.0,0.0,90,0.00,CLR,SCT,0.06,WeatherDisplay:10.37,2013-07-27 13:55:00,
2013-07-27 09:57:00,70.6,67.5,29.86,NE,45,0.0,0.0,90,0.00,CLR,SCT,0.06,WeatherDisplay:10.37,2013-07-27 13:57:00,
2013-07-27 10:00:00,70.9,67.8,29.86,NE,45,0.0,0.0,90,0.00,CLR,SCT,0.06,WeatherDisplay:10.37,2013-07-27 14:00:00,
2013-07-27 10:01:00,70.9,67.8,29.86,NE,45,0.0,0.0,90,0.00,CLR,SCT,0.06,WeatherDisplay:10.37,2013-07-27 14:01:00,
2013-07-27 10:03:00,71.1,68.0,29.86,NE,45,0.0,0.0,90,0.00,CLR,SCT,0.06,WeatherDisplay:10.37,2013-07-27 14:03:00,
2013-07-27 10:05:00,71.1,68.0,29.86,NE,45,0.0,0.0,90,0.00,CLR,SCT,0.06,WeatherDisplay:10.37,2013-07-27 14:05:00,
2013-07-27 10:07:00,71.3,68.2,29.86,NE,45,0.0,0.0,90,0.00,CLR,SCT,0.06,WeatherDisplay:10.37,2013-07-27 14:07:00,
2013-07-27 10:08:00,71.3,68.2,29.86,NE,45,0.0,0.0,90,0.00,CLR,SCT,0.06,WeatherDisplay:10.37,2013-07-27 14:08:00,
2013-07-27 10:10:00,71.5,68.4,29.86,NE,45,0.0,0.0,90,0.00,CLR,SCT,0.06,WeatherDisplay:10.37,2013-07-27 14:10:00,
2013-07-27 10:13:00,71.5,68.4,29.85,NE,42,0.0,0.0,90,0.00,CLR,SCT,0.06,WeatherDisplay:10.37,2013-07-27 14:13:00,
2013-07-27 10:14:00,71.6,68.5,29.85,NE,42,0.0,0.0,90,0.00,CLR,SCT,0.06,WeatherDisplay:10.37,2013-07-27 14:14:00,
2013-07-27 10:16:00,71.6,68.5,29.85,NE,42,0.0,0.0,90,0.00,CLR,SCT,0.06,WeatherDisplay:10.37,2013-07-27 14:16:00,
2013-07-27 10:20:00,71.8,68.7,29.85,NE,42,0.0,0.0,90,0.00,CLR,SCT,0.06,WeatherDisplay:10.37,2013-07-27 14:20:00,
2013-07-27 10:21:00,71.8,68.4,29.85,NE,42,0.0,0.0,89,0.00,CLR,SCT,0.06,WeatherDisplay:10.37,2013-07-27 14:21:00,
2013-07-27 10:24:00,72.0,68.6,29.85,NE,42,0.0,0.0,89,0.00,CLR,SCT,0.06,WeatherDisplay:10.37,2013-07-27 14:24:00,
2013-07-27 10:25:00,72.0,68.6,29.85,NE,42,0.0,0.0,89,0.00,CLR,SCT,0.06,WeatherDisplay:10.37,2013-07-27 14:25:00,
2013-07-27 10:26:00,72.0,68.6,29.85,NE,42,0.0,0.0,89,0.00,CLR,SCT,0.06,WeatherDisplay:10.37,2013-07-27 14:26:00,
2013-07-27 10:27:00,72.1,68.7,29.85,NE,42,0.0,0.0,89,0.00,CLR,SCT,0.06,WeatherDisplay:10.37,2013-07-27 14:27:00,
2013-07-27 10:29:00,72.1,68.7,29.85,NE,42,0.0,0.0,89,0.00,CLR,SCT,0.06,WeatherDisplay:10.37,2013-07-27 14:29:00,
2013-07-27 10:31:00,72.1,68.7,29.85,NE,42,0.0,0.0,89,0.00,CLR,SCT,0.06,WeatherDisplay:10.37,2013-07-27 14:31:00,
2013-07-27 10:32:00,72.1,68.7,29.86,NE,42,0.0,0.0,89,0.00,CLR,SCT,0.06,WeatherDisplay:10.37,2013-07-27 14:32:00,
2013-07-27 10:36:00,72.1,68.7,29.85,NE,42,0.0,0.0,89,0.00,CLR,SCT,0.06,WeatherDisplay:10.37,2013-07-27 14:36:00,
2013-07-27 10:37:00,72.1,68.7,29.85,NE,42,0.0,0.0,89,0.00,CLR,SCT,0.06,WeatherDisplay:10.37,2013-07-27 14:37:00,
2013-07-27 10:38:00,72.1,68.7,29.85,NE,42,0.0,0.0,89,0.00,CLR,SCT,0.06,WeatherDisplay:10.37,2013-07-27 14:38:00,
2013-07-27 10:39:00,72.1,68.7,29.85,NE,42,0.0,0.0,89,0.00,CLR,SCT,0.06,WeatherDisplay:10.37,2013-07-27 14:39:00,
2013-07-27 10:41:00,72.0,68.6,29.85,NE,42,0.0,0.0,89,0.00,CLR,SCT,0.06,WeatherDisplay:10.37,2013-07-27 14:41:00,
2013-07-27 10:42:00,72.0,68.6,29.85,NE,42,0.0,0.0,89,0.00,CLR,SCT,0.06,WeatherDisplay:10.37,2013-07-27 14:42:00,
2013-07-27 10:45:00,72.1,68.7,29.85,NE,42,0.0,0.0,89,0.00,CLR,SCT,0.06,WeatherDisplay:10.37,2013-07-27 14:45:00,
2013-07-27 10:46:00,72.1,68.7,29.85,NE,42,0.0,0.0,89,0.00,CLR,SCT,0.06,WeatherDisplay:10.37,2013-07-27 14:46:00,
2013-07-27 10:47:00,72.1,68.7,29.85,NE,42,0.0,0.0,89,0.00,CLR,SCT,0.06,WeatherDisplay:10.37,2013-07-27 14:47:00,
2013-07-27 10:48:00,72.3,68.9,29.85,NE,42,0.0,0.0,89,0.00,CLR,SCT,0.06,WeatherDisplay:10.37,2013-07-27 14:48:00,
2013-07-27 10:53:00,72.5,69.1,29.85,NE,42,0.0,0.0,89,0.00,CLR,SCT,0.06,WeatherDisplay:10.37,2013-07-27 14:53:00,
2013-07-27 10:54:00,72.5,69.1,29.85,NE,42,0.0,0.0,89,0.00,CLR,SCT,0.06,WeatherDisplay:10.37,2013-07-27 14:54:00,
2013-07-27 10:55:00,72.5,69.1,29.85,NE,42,0.0,0.0,89,0.00,CLR,SCT,0.06,WeatherDisplay:10.37,2013-07-27 14:55:00,
2013-07-27 11:00:00,72.8,69.4,29.85,NE,42,0.0,0.0,89,0.00,CLR,SCT,0.06,WeatherDisplay:10.37,2013-07-27 15:00:00,
2013-07-27 11:01:00,72.8,69.4,29.85,NE,42,0.0,0.0,89,0.00,CLR,SCT,0.06,WeatherDisplay:10.37,2013-07-27 15:01:00,
2013-07-27 11:04:00,73.0,69.6,29.85,NE,42,0.0,0.0,89,0.00,CLR,SCT,0.06,WeatherDisplay:10.37,2013-07-27 15:04:00,
2013-07-27 11:06:00,73.0,69.6,29.86,NE,42,0.0,0.0,89,0.00,CLR,SCT,0.06,WeatherDisplay:10.37,2013-07-27 15:06:00,
2013-07-27 11:07:00,73.0,69.6,29.86,NE,42,0.0,0.0,89,0.00,CLR,SCT,0.06,WeatherDisplay:10.37,2013-07-27 15:07:00,
2013-07-27 11:11:00,73.0,69.6,29.85,NE,42,0.0,0.0,89,0.00,CLR,SCT,0.06,WeatherDisplay:10.37,2013-07-27 15:11:00,
2013-07-27 11:12:00,73.0,69.6,29.85,NE,42,0.0,0.0,89,0.00,CLR,SCT,0.06,WeatherDisplay:10.37,2013-07-27 15:12:00,
2013-07-27 11:13:00,73.0,69.6,29.85,NE,42,0.0,0.0,89,0.00,CLR,SCT,0.06,WeatherDisplay:10.37,2013-07-27 15:13:00,
2013-07-27 11:16:00,73.2,69.4,29.85,NE,42,0.0,0.0,88,0.00,CLR,SCT,0.06,WeatherDisplay:10.37,2013-07-27 15:16:00,
2013-07-27 11:17:00,73.2,69.8,29.85,NE,42,0.0,0.0,89,0.00,CLR,SCT,0.06,WeatherDisplay:10.37,2013-07-27 15:17:00,
2013-07-27 11:18:00,73.2,69.8,29.85,NE,42,0.0,0.0,89,0.00,CLR,SCT,0.06,WeatherDisplay:10.37,2013-07-27 15:18:00,
2013-07-27 11:20:00,73.3,69.5,29.85,NE,42,0.0,0.0,88,0.00,CLR,SCT,0.06,WeatherDisplay:10.37,2013-07-27 15:20:00,
2013-07-27 11:21:00,73.3,69.5,29.85,NE,42,0.0,0.0,88,0.00,CLR,SCT,0.06,WeatherDisplay:10.37,2013-07-27 15:21:00,
2013-07-27 11:23:00,73.3,69.5,29.85,NE,42,2.3,2.3,88,0.00,CLR,SCT,0.06,WeatherDisplay:10.37,2013-07-27 15:23:00,
2013-07-27 11:26:00,73.5,69.7,29.85,NE,42,0.0,0.0,88,0.00,CLR,SCT,0.06,WeatherDisplay:10.37,2013-07-27 15:26:00,
2013-07-27 11:28:00,73.7,69.9,29.85,SE,127,0.0,0.0,88,0.00,CLR,SCT,0.06,WeatherDisplay:10.37,2013-07-27 15:28:00,
2013-07-27 11:29:00,73.7,69.9,29.85,East,93,2.3,2.3,88,0.00,CLR,SCT,0.06,WeatherDisplay:10.37,2013-07-27 15:29:00,
2013-07-27 11:32:00,73.9,70.1,29.85,East,93,3.5,3.5,88,0.00,CLR,SCT,0.06,WeatherDisplay:10.37,2013-07-27 15:32:00,
2013-07-27 11:34:00,73.9,70.1,29.85,East,93,0.0,0.0,88,0.00,CLR,SCT,0.06,WeatherDisplay:10.37,2013-07-27 15:34:00,
2013-07-27 11:35:00,73.9,70.1,29.85,East,93,0.0,0.0,88,0.00,CLR,SCT,0.06,WeatherDisplay:10.37,2013-07-27 15:35:00,
2013-07-27 11:39:00,74.0,70.2,29.85,East,93,0.0,0.0,88,0.00,CLR,SCT,0.06,WeatherDisplay:10.37,2013-07-27 15:39:00,
2013-07-27 11:40:00,74.0,70.2,29.85,East,93,0.0,0.0,88,0.00,CLR,SCT,0.06,WeatherDisplay:10.37,2013-07-27 15:40:00,
2013-07-27 11:42:00,74.2,70.4,29.85,East,93,0.0,0.0,88,0.00,CLR,SCT,0.06,WeatherDisplay:10.37,2013-07-27 15:42:00,
2013-07-27 11:43:00,74.2,70.4,29.85,East,93,0.0,0.0,88,0.00,CLR,SCT,0.06,WeatherDisplay:10.37,2013-07-27 15:43:00,
2013-07-27 11:46:00,74.2,70.4,29.85,East,93,0.0,0.0,88,0.00,CLR,SCT,0.06,WeatherDisplay:10.37,2013-07-27 15:46:00,
2013-07-27 11:47:00,74.2,70.4,29.85,East,93,0.0,0.0,88,0.00,CLR,SCT,0.06,WeatherDisplay:10.37,2013-07-27 15:47:00,
2013-07-27 11:48:00,74.4,70.6,29.85,East,93,0.0,0.0,88,0.00,CLR,SCT,0.06,WeatherDisplay:10.37,2013-07-27 15:48:00,
2013-07-27 11:50:00,74.4,70.6,29.85,East,93,0.0,0.0,88,0.00,CLR,SCT,0.06,WeatherDisplay:10.37,2013-07-27 15:50:00,
2013-07-27 11:54:00,74.6,70.8,29.85,SW,225,0.0,0.0,88,0.00,CLR,SCT,0.06,WeatherDisplay:10.37,2013-07-27 15:54:00,
2013-07-27 11:56:00,74.6,70.8,29.85,SW,225,0.0,0.0,88,0.00,CLR,SCT,0.06,WeatherDisplay:10.37,2013-07-27 15:56:00,
2013-07-27 11:58:00,74.6,70.8,29.85,SW,225,0.0,0.0,88,0.00,CLR,SCT,0.06,WeatherDisplay:10.37,2013-07-27 15:58:00,
2013-07-27 11:59:00,74.6,70.5,29.85,SW,225,0.0,0.0,87,0.00,CLR,SCT,0.06,WeatherDisplay:10.37,2013-07-27 15:59:00,
2013-07-27 12:02:00,74.6,70.5,29.85,SW,225,0.0,0.0,87,0.00,CLR,SCT,0.06,WeatherDisplay:10.37,2013-07-27 16:02:00,
2013-07-27 12:03:00,74.7,70.6,29.85,SW,225,0.0,0.0,87,0.00,CLR,SCT,0.06,WeatherDisplay:10.37,2013-07-27 16:03:00,
2013-07-27 12:04:00,74.7,70.6,29.85,SW,225,0.0,0.0,87,0.00,CLR,SCT,0.06,WeatherDisplay:10.37,2013-07-27 16:04:00,
2013-07-27 12:08:00,74.7,70.6,29.85,SW,225,0.0,0.0,87,0.00,CLR,SCT,0.06,WeatherDisplay:10.37,2013-07-27 16:08:00,
2013-07-27 12:10:00,74.9,70.8,29.85,SW,225,0.0,0.0,87,0.00,CLR,SCT,0.06,WeatherDisplay:10.37,2013-07-27 16:10:00,
2013-07-27 12:12:00,74.9,70.8,29.85,SW,225,0.0,0.0,87,0.00,CLR,SCT,0.06,WeatherDisplay:10.37,2013-07-27 16:12:00,
2013-07-27 12:13:00,74.9,70.8,29.85,SW,225,0.0,0.0,87,0.00,CLR,SCT,0.06,WeatherDisplay:10.37,2013-07-27 16:13:00,
2013-07-27 12:16:00,75.1,71.0,29.85,SW,225,0.0,0.0,87,0.00,CLR,SCT,0.06,WeatherDisplay:10.37,2013-07-27 16:16:00,
2013-07-27 12:18:00,75.3,71.2,29.85,SW,225,0.0,0.0,87,0.00,CLR,SCT,0.06,WeatherDisplay:10.37,2013-07-27 16:18:00,
2013-07-27 12:21:00,75.4,71.3,29.84,SW,225,0.0,0.0,87,0.00,CLR,SCT,0.06,WeatherDisplay:10.37,2013-07-27 16:21:00,
2013-07-27 12:23:00,75.4,71.3,29.84,SW,225,0.0,0.0,87,0.00,CLR,SCT,0.06,WeatherDisplay:10.37,2013-07-27 16:23:00,
2013-07-27 12:24:00,75.4,70.9,29.84,SW,227,0.0,0.0,86,0.00,CLR,SCT,0.06,WeatherDisplay:10.37,2013-07-27 16:24:00,
2013-07-27 12:26:00,75.4,70.9,29.84,SW,228,0.0,0.0,86,0.00,CLR,SCT,0.06,WeatherDisplay:10.37,2013-07-27 16:26:00,
2013-07-27 12:28:00,75.4,70.9,29.85,SW,228,0.0,0.0,86,0.00,CLR,SCT,0.06,WeatherDisplay:10.37,2013-07-27 16:28:00,
2013-07-27 12:29:00,75.4,70.9,29.84,SW,228,0.0,0.0,86,0.00,CLR,SCT,0.06,WeatherDisplay:10.37,2013-07-27 16:29:00,
2013-07-27 12:31:00,75.4,70.9,29.84,SW,221,0.0,0.0,86,0.00,CLR,SCT,0.06,WeatherDisplay:10.37,2013-07-27 16:31:00,
2013-07-27 12:32:00,75.6,71.1,29.84,SW,221,0.0,0.0,86,0.00,CLR,SCT,0.06,WeatherDisplay:10.37,2013-07-27 16:32:00,
2013-07-27 12:33:00,75.6,71.1,29.84,SW,221,0.0,0.0,86,0.00,CLR,SCT,0.06,WeatherDisplay:10.37,2013-07-27 16:33:00,
2013-07-27 12:34:00,75.6,70.8,29.84,SW,221,0.0,0.0,85,0.00,CLR,SCT,0.06,WeatherDisplay:10.37,2013-07-27 16:34:00,
2013-07-27 12:36:00,75.6,70.8,29.84,SW,221,0.0,0.0,85,0.00,CLR,SCT,0.06,WeatherDisplay:10.37,2013-07-27 16:36:00,
2013-07-27 12:39:00,75.6,70.8,29.84,SW,214,0.0,0.0,85,0.00,CLR,SCT,0.06,WeatherDisplay:10.37,2013-07-27 16:39:00,
2013-07-27 12:42:00,75.8,71.0,29.83,SW,216,0.0,0.0,85,0.00,CLR,SCT,0.06,WeatherDisplay:10.37,2013-07-27 16:42:00,
2013-07-27 12:44:00,75.8,71.0,29.83,SW,216,0.0,0.0,85,0.00,CLR,SCT,0.06,WeatherDisplay:10.37,2013-07-27 16:44:00,
2013-07-27 12:47:00,75.8,71.0,29.83,WSW,248,3.5,3.5,85,0.00,CLR,SCT,0.06,WeatherDisplay:10.37,2013-07-27 16:47:00,
2013-07-27 12:48:00,75.8,70.6,29.83,WSW,248,2.3,2.3,84,0.00,CLR,SCT,0.06,WeatherDisplay:10.37,2013-07-27 16:48:00,
2013-07-27 12:50:00,76.0,71.2,29.83,WSW,248,3.5,3.5,85,0.00,CLR,SCT,0.06,WeatherDisplay:10.37,2013-07-27 16:50:00,
2013-07-27 12:51:00,76.0,70.8,29.83,WSW,248,2.3,0.0,84,0.00,CLR,SCT,0.06,WeatherDisplay:10.37,2013-07-27 16:51:00,
2013-07-27 12:53:00,76.1,71.3,29.83,WSW,253,4.6,4.6,85,0.00,CLR,SCT,0.06,WeatherDisplay:10.37,2013-07-27 16:53:00,
2013-07-27 12:55:00,76.1,71.3,29.83,West,277,3.5,3.5,85,0.00,CLR,SCT,0.06,WeatherDisplay:10.37,2013-07-27 16:55:00,
2013-07-27 12:56:00,76.1,71.3,29.83,West,272,0.0,0.0,85,0.00,CLR,SCT,0.06,WeatherDisplay:10.37,2013-07-27 16:56:00,
2013-07-27 12:58:00,76.3,71.5,29.83,West,272,0.0,0.7,85,0.00,CLR,SCT,0.06,WeatherDisplay:10.37,2013-07-27 16:58:00,
2013-07-27 13:01:00,76.3,71.1,29.83,WSW,248,3.5,3.5,84,0.00,CLR,SCT,0.06,WeatherDisplay:10.37,2013-07-27 17:01:00,
2013-07-27 13:04:00,76.3,71.1,29.83,WSW,254,3.5,3.5,84,0.00,CLR,SCT,0.06,WeatherDisplay:10.37,2013-07-27 17:04:00,
2013-07-27 13:05:00,76.5,71.3,29.83,WSW,254,3.5,3.5,84,0.00,CLR,SCT,0.06,WeatherDisplay:10.37,2013-07-27 17:05:00,
2013-07-27 13:06:00,76.5,71.3,29.83,WSW,254,3.5,3.5,84,0.00,CLR,SCT,0.06,WeatherDisplay:10.37,2013-07-27 17:06:00,
2013-07-27 13:10:00,76.5,71.3,29.83,WSW,254,3.5,3.5,84,0.00,CLR,SCT,0.06,WeatherDisplay:10.37,2013-07-27 17:10:00,
2013-07-27 13:11:00,76.5,71.3,29.83,WSW,254,3.5,0.0,84,0.00,CLR,SCT,0.06,WeatherDisplay:10.37,2013-07-27 17:11:00,
2013-07-27 13:12:00,76.5,71.3,29.83,WSW,254,0.0,0.0,84,0.00,CLR,SCT,0.06,WeatherDisplay:10.37,2013-07-27 17:12:00,
2013-07-27 13:13:00,76.5,71.3,29.83,WSW,254,1.0,1.1,84,0.00,CLR,SCT,0.06,WeatherDisplay:10.37,2013-07-27 17:13:00,
2013-07-27 13:18:00,76.1,70.9,29.83,WSW,240,2.3,2.3,84,0.00,CLR,SCT,0.06,WeatherDisplay:10.37,2013-07-27 17:18:00,
2013-07-27 13:19:00,76.1,70.9,29.83,WSW,240,2.3,0.0,84,0.00,CLR,SCT,0.06,WeatherDisplay:10.37,2013-07-27 17:19:00,
2013-07-27 13:21:00,76.1,70.9,29.83,WSW,240,0.0,0.0,84,0.00,CLR,SCT,0.06,WeatherDisplay:10.37,2013-07-27 17:21:00,
2013-07-27 13:23:00,76.1,70.9,29.82,WSW,241,3.5,3.5,84,0.00,CLR,SCT,0.06,WeatherDisplay:10.37,2013-07-27 17:23:00,
2013-07-27 13:25:00,76.0,70.8,29.82,WSW,241,0.0,0.0,84,0.00,CLR,SCT,0.06,WeatherDisplay:10.37,2013-07-27 17:25:00,
2013-07-27 13:28:00,76.0,70.8,29.82,WSW,241,0.0,0.0,84,0.00,CLR,SCT,0.06,WeatherDisplay:10.37,2013-07-27 17:28:00,
2013-07-27 13:29:00,76.0,70.8,29.82,WSW,241,0.0,0.0,84,0.00,CLR,SCT,0.06,WeatherDisplay:10.37,2013-07-27 17:29:00,
2013-07-27 13:33:00,76.1,70.9,29.82,WSW,241,0.0,0.0,84,0.00,CLR,SCT,0.06,WeatherDisplay:10.37,2013-07-27 17:33:00,
2013-07-27 13:34:00,76.1,70.9,29.82,WSW,241,0.0,0.0,84,0.00,CLR,SCT,0.06,WeatherDisplay:10.37,2013-07-27 17:34:00,
2013-07-27 13:37:00,76.3,71.1,29.82,WSW,241,0.0,0.0,84,0.00,CLR,SCT,0.06,WeatherDisplay:10.37,2013-07-27 17:37:00,
2013-07-27 13:38:00,76.3,71.1,29.82,WSW,241,0.0,0.0,84,0.00,CLR,SCT,0.06,WeatherDisplay:10.37,2013-07-27 17:38:00,
2013-07-27 13:39:00,76.3,71.1,29.82,WSW,241,0.0,0.0,84,0.00,CLR,SCT,0.06,WeatherDisplay:10.37,2013-07-27 17:39:00,
2013-07-27 13:41:00,76.5,71.3,29.82,WSW,241,0.0,0.0,84,0.00,CLR,SCT,0.06,WeatherDisplay:10.37,2013-07-27 17:41:00,
2013-07-27 13:42:00,76.5,71.3,29.82,WSW,241,0.0,0.0,84,0.00,CLR,SCT,0.06,WeatherDisplay:10.37,2013-07-27 17:42:00,
2013-07-27 13:43:00,76.5,71.3,29.82,WSW,241,0.0,0.0,84,0.00,CLR,SCT,0.06,WeatherDisplay:10.37,2013-07-27 17:43:00,
2013-07-27 13:46:00,76.7,71.5,29.82,WSW,253,0.0,0.0,84,0.00,CLR,SCT,0.06,WeatherDisplay:10.37,2013-07-27 17:46:00,
2013-07-27 13:47:00,76.7,71.1,29.82,WSW,253,0.0,0.0,83,0.00,CLR,SCT,0.06,WeatherDisplay:10.37,2013-07-27 17:47:00,
2013-07-27 13:48:00,76.7,71.1,29.82,WSW,253,0.0,0.0,83,0.00,CLR,SCT,0.06,WeatherDisplay:10.37,2013-07-27 17:48:00,
2013-07-27 13:50:00,76.8,71.6,29.81,WSW,253,0.0,0.0,84,0.00,CLR,SCT,0.06,WeatherDisplay:10.37,2013-07-27 17:50:00,
2013-07-27 13:52:00,76.8,71.6,29.81,WSW,253,0.0,0.0,84,0.00,CLR,SCT,0.06,WeatherDisplay:10.37,2013-07-27 17:52:00,
2013-07-27 13:53:00,77.0,71.4,29.81,WSW,253,0.0,0.0,83,0.00,CLR,SCT,0.06,WeatherDisplay:10.37,2013-07-27 17:53:00,
2013-07-27 13:54:00,77.0,71.8,29.81,WSW,253,0.0,0.0,84,0.00,CLR,SCT,0.06,WeatherDisplay:10.37,2013-07-27 17:54:00,
2013-07-27 13:55:00,77.0,71.8,29.81,WSW,253,0.0,0.0,84,0.00,CLR,SCT,0.06,WeatherDisplay:10.37,2013-07-27 17:55:00,
2013-07-27 13:59:00,77.2,71.6,29.81,WSW,253,0.0,0.0,83,0.00,CLR,SCT,0.06,WeatherDisplay:10.37,2013-07-27 17:59:00,
2013-07-27 14:00:00,77.2,71.6,29.81,WSW,253,0.0,0.0,83,0.00,CLR,SCT,0.06,WeatherDisplay:10.37,2013-07-27 18:00:00,
2013-07-27 14:02:00,77.4,72.2,29.81,WSW,253,0.0,0.1,84,0.00,CLR,SCT,0.06,WeatherDisplay:10.37,2013-07-27 18:02:00,
2013-07-27 14:04:00,77.4,71.8,29.81,WSW,253,0.0,0.0,83,0.00,CLR,SCT,0.06,WeatherDisplay:10.37,2013-07-27 18:04:00,
2013-07-27 14:06:00,77.4,71.8,29.81,WSW,253,0.0,0.0,83,0.00,,SCT,0.06,WeatherDisplay:10.37,2013-07-27 18:06:00,
2013-07-27 14:07:00,77.2,71.6,29.81,WSW,253,0.0,0.0,83,0.00,,SCT,0.06,WeatherDisplay:10.37,2013-07-27 18:07:00,
2013-07-27 14:08:00,77.2,71.6,29.81,WSW,253,0.0,0.0,83,0.00,,SCT,0.06,WeatherDisplay:10.37,2013-07-27 18:08:00,
2013-07-27 14:10:00,77.2,71.6,29.81,WSW,253,0.0,0.0,83,0.00,,SCT,0.06,WeatherDisplay:10.37,2013-07-27 18:10:00,
2013-07-27 14:11:00,77.2,71.6,29.81,WSW,254,0.0,0.0,83,0.00,,SCT,0.06,WeatherDisplay:10.37,2013-07-27 18:11:00,
2013-07-27 14:13:00,77.2,71.6,29.81,WSW,254,0.0,0.0,83,0.00,,SCT,0.06,WeatherDisplay:10.37,2013-07-27 18:13:00,
2013-07-27 14:16:00,77.2,71.6,29.81,North,10,0.0,0.3,83,0.00,,SCT,0.06,WeatherDisplay:10.37,2013-07-27 18:16:00,
2013-07-27 14:18:00,77.2,71.3,29.81,NNE,31,6.9,6.9,82,0.00,,SCT,0.06,WeatherDisplay:10.37,2013-07-27 18:18:00,
2013-07-27 14:21:00,76.8,70.9,29.82,NNE,31,0.0,0.1,82,0.00,,SCT,0.07,WeatherDisplay:10.37,2013-07-27 18:21:00,
2013-07-27 14:24:00,76.3,70.0,29.82,NNE,31,2.0,2.0,81,0.02,RA,SCT,0.08,WeatherDisplay:10.37,2013-07-27 18:24:00,
2013-07-27 14:25:00,76.1,69.8,29.82,NNE,31,3.5,3.5,81,0.02,RA,SCT,0.08,WeatherDisplay:10.37,2013-07-27 18:25:00,
2013-07-27 14:27:00,75.6,69.4,29.82,North,5,4.6,4.6,81,0.02,RA,SCT,0.08,WeatherDisplay:10.37,2013-07-27 18:27:00,
2013-07-27 14:28:00,75.3,69.1,29.82,NNE,20,12.0,12.0,81,0.03,RA,SCT,0.12,WeatherDisplay:10.37,2013-07-27 18:28:00,
2013-07-27 14:30:00,74.2,67.6,29.82,NE,41,12.7,12.7,80,0.08,RA,SCT,0.18,WeatherDisplay:10.37,2013-07-27 18:30:00,
2013-07-27 14:32:00,73.7,66.8,29.82,East,92,10.0,10.0,79,0.15,RA,SCT,0.22,WeatherDisplay:10.37,2013-07-27 18:32:00,
2013-07-27 14:35:00,72.3,66.1,29.82,East,88,10.4,10.4,81,0.16,RA,SCT,0.22,WeatherDisplay:10.37,2013-07-27 18:35:00,
2013-07-27 14:36:00,72.0,65.8,29.82,ESE,123,4.6,4.6,81,0.16,RA,SCT,0.22,WeatherDisplay:10.37,2013-07-27 18:36:00,
2013-07-27 14:38:00,71.5,65.7,29.82,SSW,205,5.0,5.0,82,0.16,RA,SCT,0.22,WeatherDisplay:10.37,2013-07-27 18:38:00,
2013-07-27 14:40:00,70.9,65.1,29.82,SSW,212,6.9,6.9,82,0.16,RA,SCT,0.22,WeatherDisplay:10.37,2013-07-27 18:40:00,
2013-07-27 14:42:00,70.6,65.2,29.82,SSW,202,3.5,0.0,83,0.16,RA,SCT,0.22,WeatherDisplay:10.37,2013-07-27 18:42:00,
2013-07-27 14:45:00,70.1,64.7,29.82,SE,134,3.5,3.5,83,0.16,,SCT,0.22,WeatherDisplay:10.37,2013-07-27 18:45:00,
2013-07-27 14:46:00,70.1,64.7,29.82,SE,134,2.3,2.3,83,0.16,,SCT,0.22,WeatherDisplay:10.37,2013-07-27 18:46:00,
2013-07-27 14:49:00,69.9,64.5,29.82,SE,134,0.0,0.0,83,0.16,,SCT,0.22,WeatherDisplay:10.37,2013-07-27 18:49:00,
2013-07-27 14:50:00,69.9,64.8,29.82,SE,134,0.0,0.0,84,0.16,,SCT,0.22,WeatherDisplay:10.37,2013-07-27 18:50:00,
2013-07-27 14:52:00,70.1,65.0,29.82,SE,134,0.0,0.0,84,0.16,,SCT,0.22,WeatherDisplay:10.37,2013-07-27 18:52:00,
2013-07-27 14:53:00,70.1,65.0,29.82,SE,134,0.0,0.0,84,0.16,,SCT,0.22,WeatherDisplay:10.37,2013-07-27 18:53:00,
2013-07-27 14:54:00,70.3,65.2,29.82,SE,134,0.0,0.0,84,0.16,,SCT,0.22,WeatherDisplay:10.37,2013-07-27 18:54:00,
2013-07-27 14:56:00,70.4,65.3,29.82,SE,134,0.0,0.0,84,0.16,,SCT,0.22,WeatherDisplay:10.37,2013-07-27 18:56:00,
2013-07-27 14:57:00,70.4,65.3,29.82,SE,134,0.0,0.0,84,0.16,,SCT,0.22,WeatherDisplay:10.37,2013-07-27 18:57:00,
2013-07-27 14:58:00,70.6,65.5,29.81,SE,134,0.0,0.0,84,0.16,,SCT,0.22,WeatherDisplay:10.37,2013-07-27 18:58:00,
2013-07-27 15:01:00,70.9,65.8,29.81,SE,134,0.0,0.0,84,0.16,,SCT,0.22,WeatherDisplay:10.37,2013-07-27 19:01:00,
2013-07-27 15:02:00,70.9,65.8,29.81,SE,134,0.0,0.0,84,0.16,,SCT,0.22,WeatherDisplay:10.37,2013-07-27 19:02:00,
2013-07-27 15:03:00,71.1,66.0,29.81,SE,134,0.0,0.0,84,0.16,,SCT,0.22,WeatherDisplay:10.37,2013-07-27 19:03:00,
2013-07-27 15:04:00,71.1,66.0,29.81,SE,134,0.0,0.0,84,0.16,,SCT,0.22,WeatherDisplay:10.37,2013-07-27 19:04:00,
2013-07-27 15:05:00,71.3,66.6,29.82,SE,134,0.0,0.0,85,0.16,,SCT,0.22,WeatherDisplay:10.37,2013-07-27 19:05:00,
2013-07-27 15:06:00,71.5,66.8,29.82,SE,134,0.0,0.0,85,0.16,CLR,SCT,0.22,WeatherDisplay:10.37,2013-07-27 19:06:00,
2013-07-27 15:08:00,71.8,67.0,29.81,SE,134,0.0,0.0,85,0.16,CLR,SCT,0.22,WeatherDisplay:10.37,2013-07-27 19:08:00,
2013-07-27 15:10:00,72.1,67.3,29.81,SE,134,0.0,0.0,85,0.16,CLR,SCT,0.22,WeatherDisplay:10.37,2013-07-27 19:10:00,
2013-07-27 15:13:00,72.8,68.0,29.81,SE,134,0.0,0.0,85,0.16,CLR,SCT,0.22,WeatherDisplay:10.37,2013-07-27 19:13:00,
2013-07-27 15:16:00,73.2,68.4,29.81,SE,134,0.0,0.0,85,0.16,CLR,SCT,0.22,WeatherDisplay:10.37,2013-07-27 19:16:00,
2013-07-27 15:17:00,73.3,68.5,29.81,SE,134,0.0,0.0,85,0.16,CLR,SCT,0.22,WeatherDisplay:10.37,2013-07-27 19:17:00,
2013-07-27 15:18:00,73.5,68.7,29.80,SE,134,1.1,0.0,85,0.16,CLR,SCT,0.22,WeatherDisplay:10.37,2013-07-27 19:18:00,
2013-07-27 15:19:00,73.5,68.7,29.80,SE,134,0.0,0.0,85,0.16,CLR,SCT,0.22,WeatherDisplay:10.37,2013-07-27 19:19:00,
2013-07-27 15:23:00,73.9,68.8,29.80,SE,134,0.0,0.0,84,0.15,CLR,SCT,0.22,WeatherDisplay:10.37,2013-07-27 19:23:00,
2013-07-27 15:24:00,74.0,68.9,29.80,SE,134,0.0,0.0,84,0.14,CLR,SCT,0.22,WeatherDisplay:10.37,2013-07-27 19:24:00,
2013-07-27 15:25:00,74.0,68.9,29.80,SE,134,0.0,0.0,84,0.14,CLR,SCT,0.22,WeatherDisplay:10.37,2013-07-27 19:25:00,
2013-07-27 15:28:00,74.2,69.1,29.80,SE,134,0.0,0.0,84,0.13,CLR,SCT,0.22,WeatherDisplay:10.37,2013-07-27 19:28:00,
2013-07-27 15:29:00,74.2,69.1,29.80,SE,134,0.0,0.0,84,0.10,CLR,SCT,0.22,WeatherDisplay:10.37,2013-07-27 19:29:00,
2013-07-27 15:32:00,74.4,69.2,29.80,SE,134,0.0,0.0,84,0.01,CLR,SCT,0.22,WeatherDisplay:10.37,2013-07-27 19:32:00,
2013-07-27 15:33:00,74.6,69.4,29.80,SE,134,0.0,0.0,84,0.00,CLR,SCT,0.22,WeatherDisplay:10.37,2013-07-27 19:33:00,
2013-07-27 15:35:00,74.7,69.5,29.80,SE,134,0.0,0.0,84,0.00,CLR,SCT,0.22,WeatherDisplay:10.37,2013-07-27 19:35:00,
2013-07-27 15:37:00,74.9,69.7,29.80,SE,134,0.0,0.0,84,0.00,CLR,SCT,0.22,WeatherDisplay:10.37,2013-07-27 19:37:00,
2013-07-27 15:38:00,74.9,69.7,29.80,SE,134,0.0,0.0,84,0.00,CLR,SCT,0.22,WeatherDisplay:10.37,2013-07-27 19:38:00,
2013-07-27 15:40:00,75.1,69.9,29.80,SE,134,0.0,0.0,84,0.00,CLR,SCT,0.22,WeatherDisplay:10.37,2013-07-27 19:40:00,
2013-07-27 15:42:00,75.3,69.8,29.80,SE,134,0.0,0.0,83,0.00,CLR,SCT,0.22,WeatherDisplay:10.37,2013-07-27 19:42:00,
2013-07-27 15:44:00,75.6,70.1,29.80,SE,134,0.0,0.0,83,0.00,CLR,SCT,0.22,WeatherDisplay:10.37,2013-07-27 19:44:00,
2013-07-27 15:45:00,75.6,70.1,29.80,SE,134,0.0,0.0,83,0.00,CLR,SCT,0.22,WeatherDisplay:10.37,2013-07-27 19:45:00,
2013-07-27 15:46:00,75.8,70.3,29.80,SE,134,0.0,0.0,83,0.00,CLR,SCT,0.22,WeatherDisplay:10.37,2013-07-27 19:46:00,
2013-07-27 15:47:00,76.0,70.5,29.80,SE,134,0.0,0.0,83,0.00,CLR,SCT,0.22,WeatherDisplay:10.37,2013-07-27 19:47:00,
2013-07-27 15:49:00,76.1,70.6,29.79,SE,134,0.0,0.0,83,0.00,CLR,SCT,0.22,WeatherDisplay:10.37,2013-07-27 19:49:00,
2013-07-27 15:50:00,76.3,70.8,29.79,SE,134,0.0,0.0,83,0.00,CLR,SCT,0.22,WeatherDisplay:10.37,2013-07-27 19:50:00,
2013-07-27 15:52:00,76.5,70.6,29.79,SE,134,0.0,0.0,82,0.00,CLR,SCT,0.22,WeatherDisplay:10.37,2013-07-27 19:52:00,
2013-07-27 15:54:00,76.7,70.8,29.79,SE,134,0.0,0.0,82,0.00,CLR,SCT,0.22,WeatherDisplay:10.37,2013-07-27 19:54:00,
2013-07-27 15:55:00,76.7,70.8,29.79,SE,134,0.0,0.0,82,0.00,CLR,SCT,0.22,WeatherDisplay:10.37,2013-07-27 19:55:00,
2013-07-27 15:57:00,76.7,70.8,29.79,SE,134,0.0,0.0,82,0.00,CLR,SCT,0.22,WeatherDisplay:10.37,2013-07-27 19:57:00,
2013-07-27 15:59:00,76.8,70.5,29.79,SE,134,0.0,0.0,81,0.00,CLR,SCT,0.22,WeatherDisplay:10.37,2013-07-27 19:59:00,
2013-07-27 16:00:00,76.8,70.5,29.79,SE,134,0.0,0.0,81,0.00,CLR,SCT,0.22,WeatherDisplay:10.37,2013-07-27 20:00:00,
2013-07-27 16:02:00,76.8,70.5,29.79,SE,134,0.0,0.0,81,0.00,CLR,SCT,0.22,WeatherDisplay:10.37,2013-07-27 20:02:00,
2013-07-27 16:04:00,76.8,70.5,29.79,SE,134,0.0,0.0,81,0.00,CLR,SCT,0.22,WeatherDisplay:10.37,2013-07-27 20:04:00,
2013-07-27 16:05:00,76.8,70.5,29.79,SE,134,0.0,0.0,81,0.00,CLR,SCT,0.22,WeatherDisplay:10.37,2013-07-27 20:05:00,
2013-07-27 16:07:00,76.8,70.5,29.78,SE,134,0.0,0.0,81,0.00,,SCT,0.22,WeatherDisplay:10.37,2013-07-27 20:07:00,
2013-07-27 16:08:00,76.8,70.5,29.78,SE,134,0.0,0.0,81,0.00,,SCT,0.22,WeatherDisplay:10.37,2013-07-27 20:08:00,
2013-07-27 16:09:00,76.8,70.9,29.78,SE,134,0.0,0.0,82,0.00,,SCT,0.22,WeatherDisplay:10.37,2013-07-27 20:09:00,
2013-07-27 16:10:00,76.8,70.9,29.78,SE,134,0.0,0.0,82,0.00,,SCT,0.22,WeatherDisplay:10.37,2013-07-27 20:10:00,
2013-07-27 16:12:00,76.8,70.9,29.78,SW,215,0.0,0.0,82,0.00,,SCT,0.22,WeatherDisplay:10.37,2013-07-27 20:12:00,
2013-07-27 16:14:00,76.8,70.9,29.78,SW,215,0.0,0.0,82,0.00,,SCT,0.22,WeatherDisplay:10.37,2013-07-27 20:14:00,
2013-07-27 16:15:00,76.8,70.9,29.78,SW,215,0.0,0.0,82,0.00,,SCT,0.22,WeatherDisplay:10.37,2013-07-27 20:15:00,
2013-07-27 16:16:00,76.8,70.9,29.78,SW,215,0.0,0.0,82,0.00,,SCT,0.22,WeatherDisplay:10.37,2013-07-27 20:16:00,
2013-07-27 16:17:00,76.7,70.8,29.78,SW,215,0.0,0.0,82,0.00,,SCT,0.22,WeatherDisplay:10.37,2013-07-27 20:17:00,
2013-07-27 16:21:00,76.7,70.8,29.78,SW,215,0.0,0.0,82,0.00,,SCT,0.22,WeatherDisplay:10.37,2013-07-27 20:21:00,
2013-07-27 16:22:00,76.7,70.8,29.78,SW,215,0.0,0.0,82,0.00,,SCT,0.22,WeatherDisplay:10.37,2013-07-27 20:22:00,
2013-07-27 16:24:00,76.7,70.4,29.78,SW,215,0.0,0.0,81,0.00,,SCT,0.22,WeatherDisplay:10.37,2013-07-27 20:24:00,
2013-07-27 16:26:00,76.7,70.8,29.78,SW,215,0.0,0.0,82,0.00,,SCT,0.22,WeatherDisplay:10.37,2013-07-27 20:26:00,
2013-07-27 16:28:00,76.8,70.9,29.78,SW,215,0.0,0.0,82,0.00,,SCT,0.22,WeatherDisplay:10.37,2013-07-27 20:28:00,
2013-07-27 16:29:00,76.8,70.5,29.78,SW,215,0.0,0.0,81,0.00,,SCT,0.22,WeatherDisplay:10.37,2013-07-27 20:29:00,
2013-07-27 16:32:00,77.0,70.7,29.78,SW,215,0.0,0.0,81,0.00,,SCT,0.22,WeatherDisplay:10.37,2013-07-27 20:32:00,
2013-07-27 16:33:00,77.2,70.9,29.78,SW,216,0.0,0.0,81,0.00,,SCT,0.22,WeatherDisplay:10.37,2013-07-27 20:33:00,
2013-07-27 16:35:00,77.4,71.1,29.78,SW,216,0.0,0.0,81,0.00,,SCT,0.22,WeatherDisplay:10.37,2013-07-27 20:35:00,
2013-07-27 16:36:00,77.6,71.3,29.78,SW,216,0.0,0.0,81,0.00,,SCT,0.22,WeatherDisplay:10.37,2013-07-27 20:36:00,
2013-07-27 16:38:00,77.7,71.0,29.78,WNW,302,0.0,0.0,80,0.00,,SCT,0.22,WeatherDisplay:10.37,2013-07-27 20:38:00,
2013-07-27 16:39:00,77.7,71.0,29.78,WNW,302,0.0,0.0,80,0.00,,SCT,0.22,WeatherDisplay:10.37,2013-07-27 20:39:00,
2013-07-27 16:40:00,77.9,71.2,29.78,WNW,302,0.0,0.0,80,0.00,,SCT,0.22,WeatherDisplay:10.37,2013-07-27 20:40:00,
2013-07-27 16:44:00,78.1,71.4,29.78,WSW,240,0.0,0.0,80,0.00,,SCT,0.22,WeatherDisplay:10.37,2013-07-27 20:44:00,
2013-07-27 16:45:00,78.3,71.6,29.78,WSW,240,0.0,0.0,80,0.00,,SCT,0.22,WeatherDisplay:10.37,2013-07-27 20:45:00,
2013-07-27 16:47:00,78.5,71.8,29.78,WSW,240,0.0,0.0,80,0.00,,SCT,0.22,WeatherDisplay:10.37,2013-07-27 20:47:00,
2013-07-27 16:49:00,78.5,71.8,29.78,WSW,240,0.0,0.0,80,0.00,,SCT,0.22,WeatherDisplay:10.37,2013-07-27 20:49:00,
2013-07-27 16:50:00,78.6,71.9,29.78,WSW,240,0.0,0.0,80,0.00,,SCT,0.22,WeatherDisplay:10.37,2013-07-27 20:50:00,
2013-07-27 16:53:00,78.8,71.7,29.78,WSW,240,0.0,0.0,79,0.00,,SCT,0.22,WeatherDisplay:10.37,2013-07-27 20:53:00,
2013-07-27 16:55:00,78.8,71.7,29.77,WSW,240,0.0,0.0,79,0.00,,SCT,0.22,WeatherDisplay:10.37,2013-07-27 20:55:00,
2013-07-27 16:56:00,79.0,71.9,29.77,WSW,240,0.0,0.0,79,0.00,,SCT,0.22,WeatherDisplay:10.37,2013-07-27 20:56:00,
2013-07-27 16:57:00,79.0,71.9,29.77,WSW,240,0.0,0.0,79,0.00,,SCT,0.22,WeatherDisplay:10.37,2013-07-27 20:57:00,
2013-07-27 16:58:00,79.0,71.9,29.77,WSW,240,0.0,0.0,79,0.00,,SCT,0.22,WeatherDisplay:10.37,2013-07-27 20:58:00,
2013-07-27 17:02:00,79.2,71.7,29.77,WSW,242,0.0,0.0,78,0.00,,SCT,0.22,WeatherDisplay:10.37,2013-07-27 21:02:00,
2013-07-27 17:03:00,79.2,72.1,29.77,WSW,242,0.0,0.0,79,0.00,,SCT,0.22,WeatherDisplay:10.37,2013-07-27 21:03:00,
2013-07-27 17:05:00,79.2,71.7,29.77,WNW,287,0.0,0.0,78,0.00,,SCT,0.22,WeatherDisplay:10.37,2013-07-27 21:05:00,
2013-07-27 17:07:00,79.4,71.9,29.77,West,260,0.0,0.0,78,0.00,,SCT,0.22,WeatherDisplay:10.37,2013-07-27 21:07:00,
2013-07-27 17:09:00,79.2,71.4,29.77,West,260,0.0,0.0,77,0.00,,SCT,0.22,WeatherDisplay:10.37,2013-07-27 21:09:00,
2013-07-27 17:12:00,79.2,71.4,29.77,West,260,0.0,0.0,77,0.00,,SCT,0.22,WeatherDisplay:10.37,2013-07-27 21:12:00,
2013-07-27 17:14:00,79.0,71.2,29.77,West,259,0.0,0.0,77,0.00,,SCT,0.22,WeatherDisplay:10.37,2013-07-27 21:14:00,
2013-07-27 17:15:00,79.0,71.2,29.77,West,259,0.0,0.0,77,0.00,,SCT,0.22,WeatherDisplay:10.37,2013-07-27 21:15:00,
2013-07-27 17:16:00,79.0,71.2,29.77,West,259,0.0,0.0,77,0.00,,SCT,0.22,WeatherDisplay:10.37,2013-07-27 21:16:00,
2013-07-27 17:19:00,79.2,71.4,29.77,SW,236,0.0,0.0,77,0.00,,SCT,0.22,WeatherDisplay:10.37,2013-07-27 21:19:00,
2013-07-27 17:20:00,79.2,71.4,29.77,WSW,237,0.0,0.0,77,0.00,,SCT,0.22,WeatherDisplay:10.37,2013-07-27 21:20:00,
2013-07-27 17:22:00,79.2,71.4,29.77,SSW,207,0.0,0.0,77,0.00,,SCT,0.22,WeatherDisplay:10.37,2013-07-27 21:22:00,
2013-07-27 17:25:00,79.2,71.4,29.77,SSW,197,0.0,0.0,77,0.00,,SCT,0.22,WeatherDisplay:10.37,2013-07-27 21:25:00,
2013-07-27 17:26:00,79.0,71.2,29.77,SSW,197,0.0,0.0,77,0.00,,SCT,0.22,WeatherDisplay:10.37,2013-07-27 21:26:00,
2013-07-27 17:28:00,79.0,71.2,29.77,SSW,197,0.0,0.0,77,0.00,,SCT,0.22,WeatherDisplay:10.37,2013-07-27 21:28:00,
2013-07-27 17:29:00,79.0,71.2,29.77,SSW,197,0.0,0.0,77,0.00,,SCT,0.22,WeatherDisplay:10.37,2013-07-27 21:29:00,
2013-07-27 17:31:00,79.0,71.2,29.77,SSW,197,0.0,0.0,77,0.00,,SCT,0.22,WeatherDisplay:10.37,2013-07-27 21:31:00,
2013-07-27 17:33:00,78.8,71.0,29.77,SSW,197,0.0,0.0,77,0.00,,SCT,0.22,WeatherDisplay:10.37,2013-07-27 21:33:00,
2013-07-27 17:34:00,78.8,71.0,29.77,SSW,197,0.0,0.0,77,0.00,,SCT,0.22,WeatherDisplay:10.37,2013-07-27 21:34:00,
2013-07-27 17:36:00,78.6,70.8,29.77,SSW,197,0.0,0.0,77,0.00,,SCT,0.22,WeatherDisplay:10.37,2013-07-27 21:36:00,
2013-07-27 17:38:00,78.6,70.8,29.77,SSW,197,0.0,0.0,77,0.00,,SCT,0.22,WeatherDisplay:10.37,2013-07-27 21:38:00,
2013-07-27 17:40:00,78.6,70.8,29.77,SSW,197,0.0,0.0,77,0.00,,SCT,0.22,WeatherDisplay:10.37,2013-07-27 21:40:00,
2013-07-27 17:42:00,78.6,71.2,29.77,SSW,197,0.0,0.0,78,0.00,,SCT,0.22,WeatherDisplay:10.37,2013-07-27 21:42:00,
2013-07-27 17:44:00,78.6,71.2,29.77,SSW,197,0.0,0.0,78,0.00,,SCT,0.22,WeatherDisplay:10.37,2013-07-27 21:44:00,
2013-07-27 17:46:00,78.8,71.4,29.77,SSW,197,0.0,0.0,78,0.00,,SCT,0.22,WeatherDisplay:10.37,2013-07-27 21:46:00,
2013-07-27 17:49:00,79.0,71.2,29.77,SSW,197,0.0,0.0,77,0.00,,SCT,0.22,WeatherDisplay:10.37,2013-07-27 21:49:00,
2013-07-27 17:52:00,79.0,71.2,29.77,SSW,197,0.0,0.0,77,0.00,,SCT,0.22,WeatherDisplay:10.37,2013-07-27 21:52:00,
2013-07-27 17:55:00,79.2,71.4,29.77,SSW,197,0.0,0.0,77,0.00,,SCT,0.22,WeatherDisplay:10.37,2013-07-27 21:55:00,
2013-07-27 17:57:00,79.2,71.4,29.77,SSW,197,0.0,0.0,77,0.00,,SCT,0.22,WeatherDisplay:10.37,2013-07-27 21:57:00,
2013-07-27 17:58:00,79.2,71.4,29.77,SSW,197,0.0,0.0,77,0.00,,SCT,0.22,WeatherDisplay:10.37,2013-07-27 21:58:00,
2013-07-27 17:59:00,79.0,71.2,29.77,SSW,197,0.0,0.0,77,0.00,,SCT,0.22,WeatherDisplay:10.37,2013-07-27 21:59:00,
2013-07-27 18:00:00,79.0,71.2,29.77,SSW,197,0.0,0.0,77,0.00,,SCT,0.22,WeatherDisplay:10.37,2013-07-27 22:00:00,
2013-07-27 18:03:00,78.8,71.0,29.77,SSW,197,0.0,0.0,77,0.00,,SCT,0.22,WeatherDisplay:10.37,2013-07-27 22:03:00,
2013-07-27 18:04:00,78.8,71.4,29.77,SSW,197,0.0,0.0,78,0.00,,SCT,0.22,WeatherDisplay:10.37,2013-07-27 22:04:00,
2013-07-27 18:05:00,78.8,71.0,29.77,SSW,197,0.0,0.0,77,0.00,,SCT,0.22,WeatherDisplay:10.37,2013-07-27 22:05:00,
2013-07-27 18:06:00,78.6,70.8,29.77,SSW,197,0.0,0.0,77,0.00,,SCT,0.22,WeatherDisplay:10.37,2013-07-27 22:06:00,
2013-07-27 18:07:00,78.6,71.2,29.77,SSW,197,0.0,0.0,78,0.00,,SCT,0.22,WeatherDisplay:10.37,2013-07-27 22:07:00,
2013-07-27 18:10:00,78.5,71.1,29.77,SSW,197,0.0,0.0,78,0.00,,SCT,0.22,WeatherDisplay:10.37,2013-07-27 22:10:00,
2013-07-27 18:12:00,78.5,70.7,29.77,SSW,197,0.0,0.0,77,0.00,,SCT,0.22,WeatherDisplay:10.37,2013-07-27 22:12:00,
2013-07-27 18:13:00,78.3,70.5,29.77,SSW,197,0.0,0.0,77,0.00,,SCT,0.22,WeatherDisplay:10.37,2013-07-27 22:13:00,
2013-07-27 18:17:00,78.1,70.7,29.77,SSW,197,0.0,0.0,78,0.00,,SCT,0.22,WeatherDisplay:10.37,2013-07-27 22:17:00,
2013-07-27 18:18:00,78.1,70.3,29.77,SSW,197,0.0,0.0,77,0.00,,SCT,0.22,WeatherDisplay:10.37,2013-07-27 22:18:00,
2013-07-27 18:19:00,77.9,70.1,29.77,SSW,197,0.0,0.0,77,0.00,,SCT,0.22,WeatherDisplay:10.37,2013-07-27 22:19:00,
2013-07-27 18:21:00,77.9,70.1,29.77,SSW,197,0.0,0.0,77,0.00,,SCT,0.22,WeatherDisplay:10.37,2013-07-27 22:21:00,
2013-07-27 18:22:00,77.7,69.9,29.77,SSW,197,0.0,0.0,77,0.00,,SCT,0.22,WeatherDisplay:10.37,2013-07-27 22:22:00,
2013-07-27 18:23:00,77.7,69.9,29.77,SSW,197,0.0,0.0,77,0.00,,SCT,0.22,WeatherDisplay:10.37,2013-07-27 22:23:00,
2013-07-27 18:27:00,77.6,69.8,29.77,SSW,197,0.0,0.0,77,0.00,,SCT,0.22,WeatherDisplay:10.37,2013-07-27 22:27:00,
2013-07-27 18:28:00,77.6,70.2,29.77,SSW,197,0.0,0.0,78,0.00,,SCT,0.22,WeatherDisplay:10.37,2013-07-27 22:28:00,
2013-07-27 18:30:00,77.4,69.6,29.77,SSW,197,0.0,0.0,77,0.00,,SCT,0.22,WeatherDisplay:10.37,2013-07-27 22:30:00,
2013-07-27 18:33:00,77.4,70.0,29.77,SSW,197,0.0,0.0,78,0.00,,SCT,0.22,WeatherDisplay:10.37,2013-07-27 22:33:00,
2013-07-27 18:34:00,77.4,70.0,29.77,SSW,197,0.0,0.0,78,0.00,,SCT,0.22,WeatherDisplay:10.37,2013-07-27 22:34:00,
2013-07-27 18:36:00,77.4,70.0,29.77,SSW,197,0.0,0.0,78,0.00,,SCT,0.22,WeatherDisplay:10.37,2013-07-27 22:36:00,
2013-07-27 18:37:00,77.4,70.0,29.77,SSW,197,0.0,0.0,78,0.00,,SCT,0.22,WeatherDisplay:10.37,2013-07-27 22:37:00,
2013-07-27 18:39:00,77.4,70.0,29.77,SSW,197,0.0,0.0,78,0.00,,SCT,0.22,WeatherDisplay:10.37,2013-07-27 22:39:00,
2013-07-27 18:40:00,77.4,70.0,29.77,SSW,197,0.0,0.0,78,0.00,,SCT,0.22,WeatherDisplay:10.37,2013-07-27 22:40:00,
2013-07-27 18:41:00,77.4,69.6,29.77,SSW,197,0.0,0.0,77,0.00,,SCT,0.22,WeatherDisplay:10.37,2013-07-27 22:41:00,
2013-07-27 18:44:00,77.2,69.8,29.77,SW,215,0.0,0.0,78,0.00,,SCT,0.22,WeatherDisplay:10.37,2013-07-27 22:44:00,
2013-07-27 18:47:00,77.2,69.4,29.77,WSW,250,0.0,0.0,77,0.00,,SCT,0.22,WeatherDisplay:10.37,2013-07-27 22:47:00,
2013-07-27 18:48:00,77.2,69.4,29.77,WSW,250,0.0,0.0,77,0.00,,SCT,0.22,WeatherDisplay:10.37,2013-07-27 22:48:00,
2013-07-27 18:52:00,77.0,69.2,29.77,WSW,250,0.0,0.0,77,0.00,,SCT,0.22,WeatherDisplay:10.37,2013-07-27 22:52:00,
2013-07-27 18:53:00,77.0,69.2,29.77,WSW,250,0.0,0.0,77,0.00,,SCT,0.22,WeatherDisplay:10.37,2013-07-27 22:53:00,
2013-07-27 18:54:00,77.0,69.2,29.77,WSW,250,0.0,0.0,77,0.00,,SCT,0.22,WeatherDisplay:10.37,2013-07-27 22:54:00,
2013-07-27 18:57:00,76.8,69.0,29.77,WSW,250,0.0,0.0,77,0.00,,SCT,0.22,WeatherDisplay:10.37,2013-07-27 22:57:00,
2013-07-27 18:58:00,76.8,69.4,29.77,WSW,250,0.0,0.0,78,0.00,,SCT,0.22,WeatherDisplay:10.37,2013-07-27 22:58:00,
2013-07-27 18:59:00,76.8,69.0,29.77,WSW,250,0.0,0.0,77,0.00,,SCT,0.22,WeatherDisplay:10.37,2013-07-27 22:59:00,
2013-07-27 19:01:00,76.8,69.0,29.77,WSW,250,0.0,0.0,77,0.00,,SCT,0.22,WeatherDisplay:10.37,2013-07-27 23:01:00,
2013-07-27 19:02:00,76.8,69.4,29.77,WSW,247,0.0,0.0,78,0.00,,SCT,0.22,WeatherDisplay:10.37,2013-07-27 23:02:00,
2013-07-27 19:04:00,76.8,69.4,29.77,WSW,238,0.0,0.0,78,0.00,,SCT,0.22,WeatherDisplay:10.37,2013-07-27 23:04:00,
2013-07-27 19:06:00,76.8,69.4,29.78,WSW,238,0.0,0.0,78,0.00,,SCT,0.22,WeatherDisplay:10.37,2013-07-27 23:06:00,
2013-07-27 19:08:00,76.8,69.4,29.78,WSW,238,0.0,0.0,78,0.00,,SCT,0.22,WeatherDisplay:10.37,2013-07-27 23:08:00,
2013-07-27 19:09:00,76.8,69.0,29.78,WSW,238,0.0,0.0,77,0.00,,SCT,0.22,WeatherDisplay:10.37,2013-07-27 23:09:00,
2013-07-27 19:12:00,76.7,68.9,29.78,WSW,238,0.0,0.0,77,0.00,,SCT,0.22,WeatherDisplay:10.37,2013-07-27 23:12:00,
2013-07-27 19:14:00,76.7,68.9,29.78,WSW,238,0.0,0.0,77,0.00,,SCT,0.22,WeatherDisplay:10.37,2013-07-27 23:14:00,
2013-07-27 19:17:00,76.7,68.9,29.78,WSW,238,0.0,0.0,77,0.00,,SCT,0.22,WeatherDisplay:10.37,2013-07-27 23:17:00,
2013-07-27 19:18:00,76.7,68.9,29.78,WSW,238,0.0,0.0,77,0.00,,SCT,0.22,WeatherDisplay:10.37,2013-07-27 23:18:00,
2013-07-27 19:20:00,76.5,69.1,29.78,WSW,238,0.0,0.0,78,0.00,,SCT,0.22,WeatherDisplay:10.37,2013-07-27 23:20:00,
2013-07-27 19:22:00,76.5,68.7,29.78,WSW,237,0.0,0.0,77,0.00,,SCT,0.22,WeatherDisplay:10.37,2013-07-27 23:22:00,
2013-07-27 19:23:00,76.5,68.7,29.78,WSW,237,0.0,0.0,77,0.00,,SCT,0.22,WeatherDisplay:10.37,2013-07-27 23:23:00,
2013-07-27 19:25:00,76.5,69.1,29.78,WSW,237,0.0,0.0,78,0.00,,SCT,0.22,WeatherDisplay:10.37,2013-07-27 23:25:00,
2013-07-27 19:27:00,76.3,68.9,29.78,WSW,237,0.0,0.0,78,0.00,,SCT,0.22,WeatherDisplay:10.37,2013-07-27 23:27:00,
2013-07-27 19:28:00,76.3,68.9,29.78,WSW,237,0.0,0.0,78,0.00,,SCT,0.22,WeatherDisplay:10.37,2013-07-27 23:28:00,
2013-07-27 19:29:00,76.3,68.9,29.78,WSW,246,0.0,0.0,78,0.00,,SCT,0.22,WeatherDisplay:10.37,2013-07-27 23:29:00,
2013-07-27 19:32:00,76.1,68.7,29.77,SW,221,0.0,0.0,78,0.00,,SCT,0.22,WeatherDisplay:10.37,2013-07-27 23:32:00,
2013-07-27 19:33:00,76.1,68.7,29.77,SW,221,0.0,0.0,78,0.00,,SCT,0.22,WeatherDisplay:10.37,2013-07-27 23:33:00,
2013-07-27 19:35:00,76.0,68.6,29.77,SW,221,0.0,0.0,78,0.00,,SCT,0.22,WeatherDisplay:10.37,2013-07-27 23:35:00,
2013-07-27 19:36:00,76.0,68.6,29.77,SW,221,0.0,0.0,78,0.00,,SCT,0.22,WeatherDisplay:10.37,2013-07-27 23:36:00,
2013-07-27 19:40:00,75.8,68.4,29.77,SW,222,0.0,0.0,78,0.00,,SCT,0.22,WeatherDisplay:10.37,2013-07-27 23:40:00,
2013-07-27 19:41:00,75.6,68.3,29.77,SW,222,0.0,0.0,78,0.00,,SCT,0.22,WeatherDisplay:10.37,2013-07-27 23:41:00,
2013-07-27 19:43:00,75.6,68.3,29.77,SW,222,0.0,0.0,78,0.00,,SCT,0.22,WeatherDisplay:10.37,2013-07-27 23:43:00,
2013-07-27 19:45:00,75.4,68.1,29.78,SW,222,0.0,0.0,78,0.00,,SCT,0.22,WeatherDisplay:10.37,2013-07-27 23:45:00,
2013-07-27 19:46:00,75.4,68.1,29.78,SW,222,0.0,0.0,78,0.00,,SCT,0.22,WeatherDisplay:10.37,2013-07-27 23:46:00,
2013-07-27 19:48:00,75.4,68.1,29.78,SW,222,0.0,0.0,78,0.00,,SCT,0.22,WeatherDisplay:10.37,2013-07-27 23:48:00,
2013-07-27 19:49:00,75.4,68.1,29.78,SW,222,0.0,0.0,78,0.00,,SCT,0.22,WeatherDisplay:10.37,2013-07-27 23:49:00,
2013-07-27 19:50:00,75.4,68.1,29.78,SW,222,0.0,0.0,78,0.00,,SCT,0.22,WeatherDisplay:10.37,2013-07-27 23:50:00,
2013-07-27 19:52:00,75.3,68.0,29.78,SW,222,0.0,0.0,78,0.00,,SCT,0.22,WeatherDisplay:10.37,2013-07-27 23:52:00,
2013-07-27 19:53:00,75.3,68.0,29.78,SW,222,0.0,0.0,78,0.00,,SCT,0.22,WeatherDisplay:10.37,2013-07-27 23:53:00,
2013-07-27 19:54:00,75.3,68.0,29.78,SW,222,0.0,0.0,78,0.00,,SCT,0.22,WeatherDisplay:10.37,2013-07-27 23:54:00,
2013-07-27 19:55:00,75.3,68.0,29.78,SW,222,0.0,0.0,78,0.00,,SCT,0.22,WeatherDisplay:10.37,2013-07-27 23:55:00,
2013-07-27 19:58:00,75.3,68.0,29.78,SW,222,0.0,0.0,78,0.00,,SCT,0.22,WeatherDisplay:10.37,2013-07-27 23:58:00,
2013-07-27 19:59:00,75.3,68.0,29.78,SW,222,0.0,0.0,78,0.00,,SCT,0.22,WeatherDisplay:10.37,2013-07-27 23:59:00,
2013-07-27 20:03:00,75.3,68.3,29.78,SW,222,0.0,0.0,79,0.00,,SCT,0.22,WeatherDisplay:10.37,2013-07-28 00:03:00,
2013-07-27 20:04:00,75.3,68.3,29.78,SW,222,0.0,0.0,79,0.00,,SCT,0.22,WeatherDisplay:10.37,2013-07-28 00:04:00,
2013-07-27 20:05:00,75.3,68.3,29.78,SW,222,0.0,0.0,79,0.00,,SCT,0.22,WeatherDisplay:10.37,2013-07-28 00:05:00,
2013-07-27 20:09:00,75.1,68.1,29.78,SW,222,0.0,0.0,79,0.00,,SCT,0.22,WeatherDisplay:10.37,2013-07-28 00:09:00,
2013-07-27 20:10:00,75.1,68.1,29.78,SW,222,0.0,0.0,79,0.00,,SCT,0.22,WeatherDisplay:10.37,2013-07-28 00:10:00,
2013-07-27 20:11:00,75.1,68.1,29.78,SW,222,0.0,0.0,79,0.00,,SCT,0.22,WeatherDisplay:10.37,2013-07-28 00:11:00,
2013-07-27 20:12:00,75.1,68.1,29.78,SW,222,0.0,0.0,79,0.00,,SCT,0.22,WeatherDisplay:10.37,2013-07-28 00:12:00,
2013-07-27 20:15:00,74.9,67.9,29.78,SW,222,0.0,0.0,79,0.00,,SCT,0.22,WeatherDisplay:10.37,2013-07-28 00:15:00,
2013-07-27 20:17:00,74.7,67.8,29.78,SW,222,0.0,0.0,79,0.00,,SCT,0.22,WeatherDisplay:10.37,2013-07-28 00:17:00,
2013-07-27 20:18:00,74.7,67.8,29.78,SW,222,0.0,0.0,79,0.00,,SCT,0.22,WeatherDisplay:10.37,2013-07-28 00:18:00,
2013-07-27 20:21:00,74.6,67.7,29.78,SW,222,0.0,0.0,79,0.00,,SCT,0.22,WeatherDisplay:10.37,2013-07-28 00:21:00,
2013-07-27 20:23:00,74.6,67.7,29.78,SW,222,0.0,0.0,79,0.00,,SCT,0.22,WeatherDisplay:10.37,2013-07-28 00:23:00,
2013-07-27 20:25:00,74.4,67.5,29.78,SW,222,0.0,0.0,79,0.00,,SCT,0.22,WeatherDisplay:10.37,2013-07-28 00:25:00,
2013-07-27 20:26:00,74.4,67.5,29.78,SW,222,0.0,0.0,79,0.00,,SCT,0.22,WeatherDisplay:10.37,2013-07-28 00:26:00,
2013-07-27 20:27:00,74.2,67.3,29.78,SW,222,0.0,0.0,79,0.00,,SCT,0.22,WeatherDisplay:10.37,2013-07-28 00:27:00,
2013-07-27 20:28:00,74.2,67.3,29.78,SW,222,0.0,0.0,79,0.00,,SCT,0.22,WeatherDisplay:10.37,2013-07-28 00:28:00,
2013-07-27 20:31:00,74.0,67.4,29.78,SW,222,0.0,0.0,80,0.00,,SCT,0.22,WeatherDisplay:10.37,2013-07-28 00:31:00,
2013-07-27 20:32:00,73.9,67.3,29.78,SW,222,0.0,0.0,80,0.00,,SCT,0.22,WeatherDisplay:10.37,2013-07-28 00:32:00,
2013-07-27 20:33:00,73.9,67.3,29.78,SW,222,0.0,0.0,80,0.00,,SCT,0.22,WeatherDisplay:10.37,2013-07-28 00:33:00,
2013-07-27 20:34:00,73.9,67.3,29.78,SW,222,0.0,0.0,80,0.00,,SCT,0.22,WeatherDisplay:10.37,2013-07-28 00:34:00,
2013-07-27 20:36:00,73.7,67.1,29.78,SW,222,0.0,0.0,80,0.00,,SCT,0.22,WeatherDisplay:10.37,2013-07-28 00:36:00,
2013-07-27 20:38:00,73.7,67.1,29.78,SW,222,0.0,0.0,80,0.00,,SCT,0.22,WeatherDisplay:10.37,2013-07-28 00:38:00,
2013-07-27 20:39:00,73.5,66.9,29.78,SW,222,0.0,0.0,80,0.00,,SCT,0.22,WeatherDisplay:10.37,2013-07-28 00:39:00,
2013-07-27 20:40:00,73.5,66.9,29.79,SW,222,0.0,0.0,80,0.00,,SCT,0.22,WeatherDisplay:10.37,2013-07-28 00:40:00,
2013-07-27 20:42:00,73.3,66.8,29.78,SW,222,0.0,0.0,80,0.00,,SCT,0.22,WeatherDisplay:10.37,2013-07-28 00:42:00,
2013-07-27 20:43:00,73.3,66.8,29.78,SW,222,0.0,0.0,80,0.00,,SCT,0.22,WeatherDisplay:10.37,2013-07-28 00:43:00,
2013-07-27 20:45:00,73.2,66.7,29.78,SW,222,0.0,0.0,80,0.00,,SCT,0.22,WeatherDisplay:10.37,2013-07-28 00:45:00,
2013-07-27 20:49:00,73.0,66.5,29.79,SW,222,0.0,0.0,80,0.00,,SCT,0.22,WeatherDisplay:10.37,2013-07-28 00:49:00,
2013-07-27 20:51:00,72.8,66.6,29.79,SW,222,0.0,0.0,81,0.00,,SCT,0.22,WeatherDisplay:10.37,2013-07-28 00:51:00,
2013-07-27 20:52:00,72.7,66.5,29.79,SW,222,0.0,0.0,81,0.00,,SCT,0.22,WeatherDisplay:10.37,2013-07-28 00:52:00,
2013-07-27 20:53:00,72.7,66.5,29.79,SW,222,0.0,0.0,81,0.00,,SCT,0.22,WeatherDisplay:10.37,2013-07-28 00:53:00,
2013-07-27 20:54:00,72.7,66.5,29.79,SW,222,0.0,0.0,81,0.00,,SCT,0.22,WeatherDisplay:10.37,2013-07-28 00:54:00,
2013-07-27 20:56:00,72.5,66.3,29.79,SW,222,0.0,0.0,81,0.00,,SCT,0.22,WeatherDisplay:10.37,2013-07-28 00:56:00,
2013-07-27 20:59:00,72.3,66.1,29.79,SW,222,0.0,0.0,81,0.00,,SCT,0.22,WeatherDisplay:10.37,2013-07-28 00:59:00,
2013-07-27 21:00:00,72.3,66.1,29.79,SW,222,0.0,0.0,81,0.00,,SCT,0.22,WeatherDisplay:10.37,2013-07-28 01:00:00,
2013-07-27 21:02:00,72.1,65.9,29.79,SW,222,0.0,0.0,81,0.00,,SCT,0.22,WeatherDisplay:10.37,2013-07-28 01:02:00,
2013-07-27 21:03:00,72.1,65.9,29.79,SW,222,0.0,0.0,81,0.00,,SCT,0.22,WeatherDisplay:10.37,2013-07-28 01:03:00,
2013-07-27 21:04:00,72.0,65.8,29.79,SW,222,0.0,0.0,81,0.00,,SCT,0.22,WeatherDisplay:10.37,2013-07-28 01:04:00,
2013-07-27 21:05:00,72.0,65.8,29.79,SW,222,0.0,0.0,81,0.00,,SCT,0.22,WeatherDisplay:10.37,2013-07-28 01:05:00,
2013-07-27 21:09:00,71.8,65.7,29.79,SW,222,0.0,0.0,81,0.00,,SCT,0.22,WeatherDisplay:10.37,2013-07-28 01:09:00,
2013-07-27 21:10:00,71.8,65.7,29.79,SW,222,0.0,0.0,81,0.00,,SCT,0.22,WeatherDisplay:10.37,2013-07-28 01:10:00,
2013-07-27 21:11:00,71.6,65.5,29.79,SW,222,0.0,0.0,81,0.00,,SCT,0.22,WeatherDisplay:10.37,2013-07-28 01:11:00,
2013-07-27 21:13:00,71.6,65.5,29.79,SW,222,0.0,0.0,81,0.00,,SCT,0.22,WeatherDisplay:10.37,2013-07-28 01:13:00,
2013-07-27 21:15:00,71.5,65.4,29.79,SW,222,0.0,0.0,81,0.00,,SCT,0.22,WeatherDisplay:10.37,2013-07-28 01:15:00,
2013-07-27 21:18:00,71.5,65.4,29.79,SW,222,0.0,0.0,81,0.00,,SCT,0.22,WeatherDisplay:10.37,2013-07-28 01:18:00,
2013-07-27 21:19:00,71.5,65.4,29.79,SW,222,0.0,0.0,81,0.00,,SCT,0.22,WeatherDisplay:10.37,2013-07-28 01:19:00,
2013-07-27 21:20:00,71.3,65.2,29.79,SW,222,0.0,0.0,81,0.00,,SCT,0.22,WeatherDisplay:10.37,2013-07-28 01:20:00,
2013-07-27 21:21:00,71.3,65.2,29.79,SW,222,0.0,0.0,81,0.00,,SCT,0.22,WeatherDisplay:10.37,2013-07-28 01:21:00,
2013-07-27 21:22:00,71.3,65.2,29.79,SW,222,0.0,0.0,81,0.00,,SCT,0.22,WeatherDisplay:10.37,2013-07-28 01:22:00,
2013-07-27 21:26:00,71.1,65.3,29.80,SW,222,0.0,0.0,82,0.00,,SCT,0.22,WeatherDisplay:10.37,2013-07-28 01:26:00,
2013-07-27 21:28:00,71.1,65.3,29.80,SW,222,0.0,0.0,82,0.00,,SCT,0.22,WeatherDisplay:10.37,2013-07-28 01:28:00,
2013-07-27 21:30:00,71.1,65.3,29.80,SW,222,0.0,0.0,82,0.00,,SCT,0.22,WeatherDisplay:10.37,2013-07-28 01:30:00,
2013-07-27 21:31:00,70.9,65.1,29.80,SW,222,0.0,0.0,82,0.00,,SCT,0.22,WeatherDisplay:10.37,2013-07-28 01:31:00,
2013-07-27 21:32:00,70.9,65.1,29.80,SW,222,0.0,0.0,82,0.00,,SCT,0.22,WeatherDisplay:10.37,2013-07-28 01:32:00,
2013-07-27 21:33:00,70.9,65.1,29.80,SW,222,0.0,0.0,82,0.00,,SCT,0.22,WeatherDisplay:10.37,2013-07-28 01:33:00,
2013-07-27 21:37:00,70.8,65.0,29.80,SW,222,0.0,0.0,82,0.00,,SCT,0.22,WeatherDisplay:10.37,2013-07-28 01:37:00,
2013-07-27 21:38:00,70.8,65.0,29.80,SW,222,0.0,0.0,82,0.00,,SCT,0.22,WeatherDisplay:10.37,2013-07-28 01:38:00,
2013-07-27 21:39:00,70.8,65.0,29.80,SW,222,0.0,0.0,82,0.00,,SCT,0.22,WeatherDisplay:10.37,2013-07-28 01:39:00,
2013-07-27 21:42:00,70.8,65.0,29.80,SW,222,0.0,0.0,82,0.01,RA,SCT,0.23,WeatherDisplay:10.37,2013-07-28 01:42:00,
2013-07-27 21:43:00,70.8,65.0,29.80,SW,222,0.0,0.0,82,0.01,RA,SCT,0.23,WeatherDisplay:10.37,2013-07-28 01:43:00,
2013-07-27 21:44:00,70.8,65.0,29.80,SW,222,0.0,0.0,82,0.01,RA,SCT,0.23,WeatherDisplay:10.37,2013-07-28 01:44:00,
2013-07-27 21:47:00,70.8,65.0,29.80,SW,222,0.0,0.0,82,0.01,RA,SCT,0.23,WeatherDisplay:10.37,2013-07-28 01:47:00,
2013-07-27 21:49:00,70.8,65.0,29.80,SW,222,0.0,0.0,82,0.01,RA,SCT,0.23,WeatherDisplay:10.37,2013-07-28 01:49:00,
2013-07-27 21:50:00,70.8,65.0,29.80,SW,222,0.0,0.0,82,0.01,RA,SCT,0.23,WeatherDisplay:10.37,2013-07-28 01:50:00,
2013-07-27 21:52:00,70.8,65.0,29.80,SW,222,0.0,0.0,82,0.01,,SCT,0.23,WeatherDisplay:10.37,2013-07-28 01:52:00,
2013-07-27 21:55:00,70.8,65.4,29.80,SW,222,0.0,0.0,83,0.01,,SCT,0.23,WeatherDisplay:10.37,2013-07-28 01:55:00,
2013-07-27 21:56:00,70.8,65.4,29.80,SW,222,0.0,0.0,83,0.01,,SCT,0.23,WeatherDisplay:10.37,2013-07-28 01:56:00,
2013-07-27 21:58:00,70.8,65.4,29.80,SW,222,0.0,0.0,83,0.01,,SCT,0.23,WeatherDisplay:10.37,2013-07-28 01:58:00,
2013-07-27 22:00:00,70.8,65.4,29.80,SW,222,0.0,0.0,83,0.01,,SCT,0.23,WeatherDisplay:10.37,2013-07-28 02:00:00,
2013-07-27 22:03:00,70.8,65.4,29.80,SW,222,0.0,0.0,83,0.01,,SCT,0.23,WeatherDisplay:10.37,2013-07-28 02:03:00,
2013-07-27 22:04:00,70.8,65.4,29.80,SW,222,0.0,0.0,83,0.01,,SCT,0.23,WeatherDisplay:10.37,2013-07-28 02:04:00,
2013-07-27 22:07:00,70.8,65.4,29.80,SW,222,0.0,0.0,83,0.01,,SCT,0.23,WeatherDisplay:10.37,2013-07-28 02:07:00,
2013-07-27 22:08:00,70.8,65.4,29.80,SW,222,0.0,0.0,83,0.01,,SCT,0.23,WeatherDisplay:10.37,2013-07-28 02:08:00,
2013-07-27 22:09:00,70.8,65.4,29.80,SW,222,0.0,0.0,83,0.01,,SCT,0.23,WeatherDisplay:10.37,2013-07-28 02:09:00,
2013-07-27 22:12:00,70.8,65.4,29.80,SW,222,0.0,0.0,83,0.01,,SCT,0.23,WeatherDisplay:10.37,2013-07-28 02:12:00,
2013-07-27 22:16:00,70.8,65.4,29.80,SW,222,0.0,0.0,83,0.01,,SCT,0.23,WeatherDisplay:10.37,2013-07-28 02:16:00,
2013-07-27 22:17:00,70.8,65.4,29.80,SW,222,0.0,0.0,83,0.01,,SCT,0.23,WeatherDisplay:10.37,2013-07-28 02:17:00,
2013-07-27 22:19:00,70.8,65.7,29.80,SW,222,0.0,0.0,84,0.01,,SCT,0.23,WeatherDisplay:10.37,2013-07-28 02:19:00,
2013-07-27 22:21:00,70.8,65.7,29.80,SW,222,0.0,0.0,84,0.01,,SCT,0.23,WeatherDisplay:10.37,2013-07-28 02:21:00,
2013-07-27 22:24:00,70.6,65.2,29.80,SW,222,0.0,0.0,83,0.01,,SCT,0.23,WeatherDisplay:10.37,2013-07-28 02:24:00,
2013-07-27 22:25:00,70.6,65.2,29.80,SW,222,0.0,0.0,83,0.01,,SCT,0.23,WeatherDisplay:10.37,2013-07-28 02:25:00,
2013-07-27 22:27:00,70.6,65.2,29.80,SW,222,0.0,0.0,83,0.01,,SCT,0.23,WeatherDisplay:10.37,2013-07-28 02:27:00,
2013-07-27 22:28:00,70.6,65.2,29.80,SW,222,0.0,0.0,83,0.01,,SCT,0.23,WeatherDisplay:10.37,2013-07-28 02:28:00,
2013-07-27 22:30:00,70.4,65.3,29.80,SW,222,0.0,0.0,84,0.01,,SCT,0.23,WeatherDisplay:10.37,2013-07-28 02:30:00,
2013-07-27 22:32:00,70.4,65.3,29.80,SW,222,0.0,0.0,84,0.01,,SCT,0.23,WeatherDisplay:10.37,2013-07-28 02:32:00,
2013-07-27 22:33:00,70.4,65.3,29.80,SW,222,0.0,0.0,84,0.01,,SCT,0.23,WeatherDisplay:10.37,2013-07-28 02:33:00,
2013-07-27 22:36:00,70.4,65.3,29.80,SW,222,0.0,0.0,84,0.01,,SCT,0.23,WeatherDisplay:10.37,2013-07-28 02:36:00,
2013-07-27 22:39:00,70.3,65.2,29.81,SW,222,0.0,0.0,84,0.01,,SCT,0.23,WeatherDisplay:10.37,2013-07-28 02:39:00,
2013-07-27 22:40:00,70.3,65.2,29.81,SW,222,0.0,0.0,84,0.01,,SCT,0.23,WeatherDisplay:10.37,2013-07-28 02:40:00,
2013-07-27 22:41:00,70.3,65.2,29.81,SW,222,0.0,0.0,84,0.01,,SCT,0.23,WeatherDisplay:10.37,2013-07-28 02:41:00,
2013-07-27 22:46:00,70.1,65.0,29.81,SW,222,0.0,0.0,84,0.00,,SCT,0.23,WeatherDisplay:10.37,2013-07-28 02:46:00,
2013-07-27 22:48:00,70.1,65.0,29.81,SW,222,0.0,0.0,84,0.00,,SCT,0.23,WeatherDisplay:10.37,2013-07-28 02:48:00,
2013-07-27 22:49:00,70.1,65.0,29.81,SW,222,0.0,0.0,84,0.00,,SCT,0.23,WeatherDisplay:10.37,2013-07-28 02:49:00,
2013-07-27 22:52:00,69.9,64.8,29.81,SW,222,0.0,0.0,84,0.00,,SCT,0.23,WeatherDisplay:10.37,2013-07-28 02:52:00,
2013-07-27 22:54:00,69.9,64.8,29.81,SW,222,0.0,0.0,84,0.00,,SCT,0.23,WeatherDisplay:10.37,2013-07-28 02:54:00,
2013-07-27 22:55:00,69.9,64.8,29.81,SW,222,0.0,0.0,84,0.00,,SCT,0.23,WeatherDisplay:10.37,2013-07-28 02:55:00,
2013-07-27 22:56:00,69.9,64.8,29.81,SW,222,0.0,0.0,84,0.00,,SCT,0.23,WeatherDisplay:10.37,2013-07-28 02:56:00,
2013-07-27 22:59:00,69.9,64.8,29.81,SW,222,0.0,0.0,84,0.00,,SCT,0.23,WeatherDisplay:10.37,2013-07-28 02:59:00,
2013-07-27 23:01:00,69.8,64.7,29.80,SW,222,0.0,0.0,84,0.00,,SCT,0.23,WeatherDisplay:10.37,2013-07-28 03:01:00,
2013-07-27 23:02:00,69.8,64.7,29.80,SW,222,0.0,0.0,84,0.00,,SCT,0.23,WeatherDisplay:10.37,2013-07-28 03:02:00,
2013-07-27 23:04:00,69.8,64.7,29.80,SW,222,0.0,0.0,84,0.00,,SCT,0.23,WeatherDisplay:10.37,2013-07-28 03:04:00,
2013-07-27 23:07:00,69.8,64.7,29.80,SW,222,0.0,0.0,84,0.00,,SCT,0.23,WeatherDisplay:10.37,2013-07-28 03:07:00,
2013-07-27 23:09:00,69.8,64.7,29.80,SW,222,0.0,0.0,84,0.00,,SCT,0.23,WeatherDisplay:10.37,2013-07-28 03:09:00,
2013-07-27 23:10:00,69.8,64.7,29.80,SW,222,0.0,0.0,84,0.00,,SCT,0.23,WeatherDisplay:10.37,2013-07-28 03:10:00,
2013-07-27 23:11:00,69.6,64.5,29.80,SW,222,0.0,0.0,84,0.00,,SCT,0.23,WeatherDisplay:10.37,2013-07-28 03:11:00,
2013-07-27 23:14:00,69.6,64.5,29.80,SW,222,0.0,0.0,84,0.00,,SCT,0.23,WeatherDisplay:10.37,2013-07-28 03:14:00,
2013-07-27 23:15:00,69.6,64.5,29.80,SW,222,0.0,0.0,84,0.00,,SCT,0.23,WeatherDisplay:10.37,2013-07-28 03:15:00,
2013-07-27 23:16:00,69.6,64.5,29.80,SW,222,0.0,0.0,84,0.00,,SCT,0.23,WeatherDisplay:10.37,2013-07-28 03:16:00,
2013-07-27 23:17:00,69.4,64.4,29.80,SW,222,0.0,0.0,84,0.00,,SCT,0.23,WeatherDisplay:10.37,2013-07-28 03:17:00,
2013-07-27 23:18:00,69.4,64.4,29.80,SW,222,0.0,0.0,84,0.00,,SCT,0.23,WeatherDisplay:10.37,2013-07-28 03:18:00,
2013-07-27 23:19:00,69.4,64.4,29.80,SW,222,0.0,0.0,84,0.00,,SCT,0.23,WeatherDisplay:10.37,2013-07-28 03:19:00,
2013-07-27 23:23:00,69.3,64.3,29.80,SW,222,0.0,0.0,84,0.00,,SCT,0.23,WeatherDisplay:10.37,2013-07-28 03:23:00,
2013-07-27 23:24:00,69.3,64.3,29.80,SW,222,0.0,0.0,84,0.00,,SCT,0.23,WeatherDisplay:10.37,2013-07-28 03:24:00,
2013-07-27 23:26:00,69.3,64.6,29.80,SW,222,0.0,0.0,85,0.00,,SCT,0.23,WeatherDisplay:10.37,2013-07-28 03:26:00,
2013-07-27 23:30:00,69.1,64.4,29.80,SW,222,0.0,0.0,85,0.00,,SCT,0.23,WeatherDisplay:10.37,2013-07-28 03:30:00,
2013-07-27 23:31:00,69.1,64.4,29.80,SW,222,0.0,0.0,85,0.00,,SCT,0.23,WeatherDisplay:10.37,2013-07-28 03:31:00,
2013-07-27 23:33:00,68.9,64.2,29.80,SW,222,0.0,0.0,85,0.00,,SCT,0.23,WeatherDisplay:10.37,2013-07-28 03:33:00,
2013-07-27 23:35:00,68.9,64.2,29.80,SW,222,0.0,0.0,85,0.00,,SCT,0.23,WeatherDisplay:10.37,2013-07-28 03:35:00,
2013-07-27 23:36:00,68.9,64.2,29.80,SW,222,0.0,0.0,85,0.00,,SCT,0.23,WeatherDisplay:10.37,2013-07-28 03:36:00,
2013-07-27 23:37:00,68.9,64.2,29.80,SW,222,0.0,0.0,85,0.00,,SCT,0.23,WeatherDisplay:10.37,2013-07-28 03:37:00,
2013-07-27 23:40:00,68.9,64.2,29.80,SW,222,0.0,0.0,85,0.00,,SCT,0.23,WeatherDisplay:10.37,2013-07-28 03:40:00,
2013-07-27 23:42:00,68.8,64.1,29.80,SW,222,0.0,0.0,85,0.00,,SCT,0.23,WeatherDisplay:10.37,2013-07-28 03:42:00,
2013-07-27 23:43:00,68.8,64.1,29.80,SW,222,0.0,0.0,85,0.00,,SCT,0.23,WeatherDisplay:10.37,2013-07-28 03:43:00,
2013-07-27 23:44:00,68.8,64.1,29.80,SW,222,0.0,0.0,85,0.00,,SCT,0.23,WeatherDisplay:10.37,2013-07-28 03:44:00,
2013-07-27 23:45:00,68.8,64.1,29.80,SW,222,0.0,0.0,85,0.00,,SCT,0.23,WeatherDisplay:10.37,2013-07-28 03:45:00,
2013-07-27 23:49:00,68.6,63.9,29.80,SW,222,0.0,0.0,85,0.00,,SCT,0.23,WeatherDisplay:10.37,2013-07-28 03:49:00,
2013-07-27 23:52:00,68.4,63.7,29.80,SW,222,0.0,0.0,85,0.00,,SCT,0.23,WeatherDisplay:10.37,2013-07-28 03:52:00,
2013-07-27 23:54:00,68.4,63.7,29.80,SW,222,0.0,0.0,85,0.00,,SCT,0.23,WeatherDisplay:10.37,2013-07-28 03:54:00,
2013-07-27 23:55:00,68.3,63.6,29.80,SW,222,0.0,0.0,85,0.00,,SCT,0.23,WeatherDisplay:10.37,2013-07-28 03:55:00,
2013-07-27 23:57:00,68.3,63.6,29.80,SW,222,0.0,0.0,85,0.00,,SCT,0.23,WeatherDisplay:10.37,2013-07-28 03:57:00,
2013-07-27 23:58:00,68.3,63.6,29.80,SW,222,0.0,0.0,85,0.00,,SCT,0.23,WeatherDisplay:10.37,2013-07-28 03:58:00,